Time,TemperatureF,DewpointF,PressureIn,WindDirection,WindDirectionDegrees,WindSpeedMPH,WindSpeedGustMPH,Humidity,HourlyPrecipIn,Conditions,Clouds,dailyrainin,SoftwareType,DateUTC
2013-10-09 00:00:00,56.1,46.5,30.19,SE,135,0.0,0.0,70,0.00,,,0.00,VWS V14.01,2013-10-09 05:00:00,
2013-10-09 00:01:00,56.1,46.5,30.19,SE,135,0.0,0.0,70,0.00,,,0.00,VWS V14.01,2013-10-09 05:01:00,
2013-10-09 00:02:00,55.9,46.3,30.19,SE,135,0.0,0.0,70,0.00,,,0.00,VWS V14.01,2013-10-09 05:02:00,
2013-10-09 00:03:00,55.9,46.3,30.19,SE,135,0.0,0.0,70,0.00,,,0.00,VWS V14.01,2013-10-09 05:03:00,
2013-10-09 00:04:00,55.9,46.3,30.19,SE,135,0.0,0.0,70,0.00,,,0.00,VWS V14.01,2013-10-09 05:04:00,
2013-10-09 00:05:00,55.9,46.3,30.19,SE,135,0.0,0.0,70,0.00,,,0.00,VWS V14.01,2013-10-09 05:05:00,
2013-10-09 00:06:00,55.9,46.3,30.19,SE,135,0.0,0.0,70,0.00,,,0.00,VWS V14.01,2013-10-09 05:06:00,
2013-10-09 00:07:00,55.9,46.7,30.19,SE,135,0.0,0.0,71,0.00,,,0.00,VWS V14.01,2013-10-09 05:07:00,
2013-10-09 00:08:00,55.7,46.5,30.19,SE,135,0.0,0.0,71,0.00,,,0.00,VWS V14.01,2013-10-09 05:08:00,
2013-10-09 00:09:00,55.7,46.5,30.19,SE,135,0.0,0.0,71,0.00,,,0.00,VWS V14.01,2013-10-09 05:09:00,
2013-10-09 00:10:00,55.5,46.3,30.19,SE,135,0.0,0.0,71,0.00,,,0.00,VWS V14.01,2013-10-09 05:10:00,
2013-10-09 00:11:00,55.5,46.3,30.19,SE,135,0.0,0.0,71,0.00,,,0.00,VWS V14.01,2013-10-09 05:11:00,
2013-10-09 00:12:00,55.5,46.3,30.19,SE,135,0.0,0.0,71,0.00,,,0.00,VWS V14.01,2013-10-09 05:12:00,
2013-10-09 00:13:00,55.5,46.3,30.19,SE,135,0.0,0.0,71,0.00,,,0.00,VWS V14.01,2013-10-09 05:13:00,
2013-10-09 00:14:00,55.5,46.3,30.19,SE,135,0.0,0.0,71,0.00,,,0.00,VWS V14.01,2013-10-09 05:14:00,
2013-10-09 00:15:00,55.5,46.3,30.19,SE,135,0.0,0.0,71,0.00,,,0.00,VWS V14.01,2013-10-09 05:15:00,
2013-10-09 00:16:00,55.5,46.3,30.19,SE,135,0.0,0.0,71,0.00,,,0.00,VWS V14.01,2013-10-09 05:16:00,
2013-10-09 00:17:00,55.4,46.2,30.20,SE,135,0.0,0.0,71,0.00,,,0.00,VWS V14.01,2013-10-09 05:17:00,
2013-10-09 00:18:00,55.2,46.0,30.20,SE,135,0.0,0.0,71,0.00,,,0.00,VWS V14.01,2013-10-09 05:18:00,
2013-10-09 00:19:00,55.2,46.0,30.20,SE,135,0.0,0.0,71,0.00,,,0.00,VWS V14.01,2013-10-09 05:19:00,
2013-10-09 00:20:00,55.2,46.0,30.20,SE,135,0.0,0.0,71,0.00,,,0.00,VWS V14.01,2013-10-09 05:20:00,
2013-10-09 00:21:00,55.2,46.0,30.20,SE,135,0.0,0.0,71,0.00,,,0.00,VWS V14.01,2013-10-09 05:21:00,
2013-10-09 00:22:00,55.2,46.3,30.20,SE,135,0.0,0.0,72,0.00,,,0.00,VWS V14.01,2013-10-09 05:22:00,
2013-10-09 00:23:00,55.2,46.3,30.20,SE,135,0.0,0.0,72,0.00,,,0.00,VWS V14.01,2013-10-09 05:23:00,
2013-10-09 00:24:00,55.2,46.3,30.20,SE,135,0.0,0.0,72,0.00,,,0.00,VWS V14.01,2013-10-09 05:24:00,
2013-10-09 00:25:00,55.4,46.5,30.19,SE,135,0.0,0.0,72,0.00,,,0.00,VWS V14.01,2013-10-09 05:25:00,
2013-10-09 00:26:00,55.4,46.5,30.19,SE,135,0.0,0.0,72,0.00,,,0.00,VWS V14.01,2013-10-09 05:26:00,
2013-10-09 00:27:00,55.4,46.5,30.20,SE,135,0.0,0.0,72,0.00,,,0.00,VWS V14.01,2013-10-09 05:27:00,
2013-10-09 00:28:00,55.4,46.5,30.20,SE,135,0.0,0.0,72,0.00,,,0.00,VWS V14.01,2013-10-09 05:28:00,
2013-10-09 00:29:00,55.4,46.5,30.20,SE,135,0.0,0.0,72,0.00,,,0.00,VWS V14.01,2013-10-09 05:29:00,
2013-10-09 00:30:00,55.4,46.5,30.20,SE,135,0.0,0.0,72,0.00,,,0.00,VWS V14.01,2013-10-09 05:30:00,
2013-10-09 00:31:00,55.4,46.5,30.20,SE,135,0.0,0.0,72,0.00,,,0.00,VWS V14.01,2013-10-09 05:31:00,
2013-10-09 00:32:00,55.4,46.5,30.20,SE,135,1.1,1.1,72,0.00,,,0.00,VWS V14.01,2013-10-09 05:32:00,
2013-10-09 00:33:00,55.5,46.6,30.20,SE,135,0.0,1.1,72,0.00,,,0.00,VWS V14.01,2013-10-09 05:33:00,
2013-10-09 00:34:00,55.5,46.6,30.20,SE,135,0.0,0.0,72,0.00,,,0.00,VWS V14.01,2013-10-09 05:34:00,
2013-10-09 00:35:00,55.7,46.8,30.20,SE,135,0.0,0.0,72,0.00,,,0.00,VWS V14.01,2013-10-09 05:35:00,
2013-10-09 00:36:00,55.7,46.8,30.20,SE,135,0.0,0.0,72,0.00,,,0.00,VWS V14.01,2013-10-09 05:36:00,
2013-10-09 00:37:00,55.7,46.8,30.20,SE,135,0.0,0.0,72,0.00,,,0.00,VWS V14.01,2013-10-09 05:37:00,
2013-10-09 00:38:00,55.7,46.8,30.20,SE,135,0.4,0.4,72,0.00,,,0.00,VWS V14.01,2013-10-09 05:38:00,
2013-10-09 00:39:00,55.7,46.8,30.20,SE,135,0.4,0.4,72,0.00,,,0.00,VWS V14.01,2013-10-09 05:39:00,
2013-10-09 00:40:00,55.9,47.0,30.20,SE,135,0.0,0.4,72,0.00,,,0.00,VWS V14.01,2013-10-09 05:40:00,
2013-10-09 00:41:00,55.9,47.0,30.20,SE,135,0.0,0.0,72,0.00,,,0.00,VWS V14.01,2013-10-09 05:41:00,
2013-10-09 00:42:00,55.7,46.5,30.20,SE,135,0.0,0.0,71,0.00,,,0.00,VWS V14.01,2013-10-09 05:42:00,
2013-10-09 00:43:00,55.7,46.5,30.20,SE,135,0.0,0.0,71,0.00,,,0.00,VWS V14.01,2013-10-09 05:43:00,
2013-10-09 00:44:00,55.7,46.5,30.20,SE,135,0.0,0.0,71,0.00,,,0.00,VWS V14.01,2013-10-09 05:44:00,
2013-10-09 00:45:00,55.7,46.5,30.20,SE,135,0.0,0.0,71,0.00,,,0.00,VWS V14.01,2013-10-09 05:45:00,
2013-10-09 00:46:00,55.7,46.5,30.20,SE,135,0.0,0.0,71,0.00,,,0.00,VWS V14.01,2013-10-09 05:46:00,
2013-10-09 00:47:00,55.9,46.7,30.20,SE,135,0.0,0.0,71,0.00,,,0.00,VWS V14.01,2013-10-09 05:47:00,
2013-10-09 00:48:00,55.7,46.5,30.20,SE,135,0.0,0.0,71,0.00,,,0.00,VWS V14.01,2013-10-09 05:48:00,
2013-10-09 00:49:00,55.7,46.5,30.20,SE,135,0.0,0.0,71,0.00,,,0.00,VWS V14.01,2013-10-09 05:49:00,
2013-10-09 00:50:00,55.7,46.5,30.20,SE,135,0.0,0.0,71,0.00,,,0.00,VWS V14.01,2013-10-09 05:50:00,
2013-10-09 00:51:00,55.7,46.5,30.20,SE,135,0.0,0.0,71,0.00,,,0.00,VWS V14.01,2013-10-09 05:51:00,
2013-10-09 00:52:00,55.7,46.5,30.20,SE,135,0.0,0.0,71,0.00,,,0.00,VWS V14.01,2013-10-09 05:52:00,
2013-10-09 00:53:00,55.5,46.3,30.20,SE,135,0.0,0.0,71,0.00,,,0.00,VWS V14.01,2013-10-09 05:53:00,
2013-10-09 00:54:00,55.5,46.3,30.20,SE,135,0.0,0.0,71,0.00,,,0.00,VWS V14.01,2013-10-09 05:54:00,
2013-10-09 00:55:00,55.5,46.3,30.20,SE,135,0.0,0.0,71,0.00,,,0.00,VWS V14.01,2013-10-09 05:55:00,
2013-10-09 00:56:00,55.5,46.3,30.20,SE,135,0.0,0.0,71,0.00,,,0.00,VWS V14.01,2013-10-09 05:56:00,
2013-10-09 00:57:00,55.5,46.3,30.20,SE,135,0.0,0.0,71,0.00,,,0.00,VWS V14.01,2013-10-09 05:57:00,
2013-10-09 00:58:00,55.5,46.3,30.20,SE,135,0.0,0.0,71,0.00,,,0.00,VWS V14.01,2013-10-09 05:58:00,
2013-10-09 00:59:00,55.5,46.3,30.20,SE,135,0.0,0.0,71,0.00,,,0.00,VWS V14.01,2013-10-09 05:59:00,
2013-10-09 01:00:00,55.5,46.3,30.20,SE,135,0.0,0.0,71,0.00,,,0.00,VWS V14.01,2013-10-09 06:00:00,
2013-10-09 01:01:00,55.5,46.3,30.20,SE,135,0.0,0.0,71,0.00,,,0.00,VWS V14.01,2013-10-09 06:01:00,
2013-10-09 01:02:00,55.7,46.5,30.20,SE,135,0.0,0.0,71,0.00,,,0.00,VWS V14.01,2013-10-09 06:02:00,
2013-10-09 01:03:00,55.7,46.5,30.20,SE,135,0.0,0.0,71,0.00,,,0.00,VWS V14.01,2013-10-09 06:03:00,
2013-10-09 01:04:00,55.7,46.5,30.20,SE,135,0.0,0.0,71,0.00,,,0.00,VWS V14.01,2013-10-09 06:04:00,
2013-10-09 01:05:00,55.7,46.5,30.20,SE,135,0.0,0.0,71,0.00,,,0.00,VWS V14.01,2013-10-09 06:05:00,
2013-10-09 01:06:00,55.7,46.5,30.20,SE,135,0.0,0.0,71,0.00,,,0.00,VWS V14.01,2013-10-09 06:06:00,
2013-10-09 01:07:00,55.7,46.5,30.20,SE,135,0.0,0.0,71,0.00,,,0.00,VWS V14.01,2013-10-09 06:07:00,
2013-10-09 01:08:00,55.5,46.3,30.20,SE,135,0.0,0.0,71,0.00,,,0.00,VWS V14.01,2013-10-09 06:08:00,
2013-10-09 01:09:00,55.5,46.3,30.20,SE,135,0.0,0.0,71,0.00,,,0.00,VWS V14.01,2013-10-09 06:09:00,
2013-10-09 01:10:00,55.5,46.3,30.20,SE,135,0.0,0.0,71,0.00,,,0.00,VWS V14.01,2013-10-09 06:10:00,
2013-10-09 01:11:00,55.5,46.3,30.20,SE,135,0.0,0.0,71,0.00,,,0.00,VWS V14.01,2013-10-09 06:11:00,
2013-10-09 01:12:00,55.4,46.2,30.20,SE,135,0.0,0.0,71,0.00,,,0.00,VWS V14.01,2013-10-09 06:12:00,
2013-10-09 01:13:00,55.4,46.2,30.20,SE,135,0.0,0.0,71,0.00,,,0.00,VWS V14.01,2013-10-09 06:13:00,
2013-10-09 01:14:00,55.2,46.3,30.20,SE,135,0.0,0.0,72,0.00,,,0.00,VWS V14.01,2013-10-09 06:14:00,
2013-10-09 01:15:00,55.2,46.3,30.20,SE,135,0.0,0.0,72,0.00,,,0.00,VWS V14.01,2013-10-09 06:15:00,
2013-10-09 01:16:00,55.2,46.3,30.20,SE,135,0.0,0.0,72,0.00,,,0.00,VWS V14.01,2013-10-09 06:16:00,
2013-10-09 01:17:00,55.2,46.3,30.20,SE,135,0.0,0.0,72,0.00,,,0.00,VWS V14.01,2013-10-09 06:17:00,
2013-10-09 01:18:00,55.0,46.2,30.20,SE,135,0.0,0.0,72,0.00,,,0.00,VWS V14.01,2013-10-09 06:18:00,
2013-10-09 01:19:00,55.0,46.2,30.20,SE,135,0.0,0.0,72,0.00,,,0.00,VWS V14.01,2013-10-09 06:19:00,
2013-10-09 01:20:00,55.0,46.2,30.20,SE,135,0.0,0.0,72,0.00,,,0.00,VWS V14.01,2013-10-09 06:20:00,
2013-10-09 01:21:00,55.0,46.2,30.20,SE,135,0.0,0.0,72,0.00,,,0.00,VWS V14.01,2013-10-09 06:21:00,
2013-10-09 01:22:00,55.0,46.2,30.20,SE,135,0.0,0.0,72,0.00,,,0.00,VWS V14.01,2013-10-09 06:22:00,
2013-10-09 01:23:00,54.6,45.8,30.20,SE,135,0.0,0.0,72,0.00,,,0.00,VWS V14.01,2013-10-09 06:23:00,
2013-10-09 01:24:00,54.6,45.8,30.20,SE,135,0.0,0.0,72,0.00,,,0.00,VWS V14.01,2013-10-09 06:24:00,
2013-10-09 01:25:00,54.5,45.7,30.20,SE,135,0.0,0.0,72,0.00,,,0.00,VWS V14.01,2013-10-09 06:25:00,
2013-10-09 01:26:00,54.5,45.7,30.20,SE,135,0.0,0.0,72,0.00,,,0.00,VWS V14.01,2013-10-09 06:26:00,
2013-10-09 01:27:00,54.5,45.7,30.20,SE,135,0.0,0.0,72,0.00,,,0.00,VWS V14.01,2013-10-09 06:27:00,
2013-10-09 01:28:00,54.5,45.7,30.20,SE,135,0.0,0.0,72,0.00,,,0.00,VWS V14.01,2013-10-09 06:28:00,
2013-10-09 01:29:00,54.3,45.8,30.20,SE,135,0.0,0.0,73,0.00,,,0.00,VWS V14.01,2013-10-09 06:29:00,
2013-10-09 01:30:00,54.3,45.8,30.20,SE,135,0.0,0.0,73,0.00,,,0.00,VWS V14.01,2013-10-09 06:30:00,
2013-10-09 01:31:00,54.3,45.8,30.20,SE,135,0.0,0.0,73,0.00,,,0.00,VWS V14.01,2013-10-09 06:31:00,
2013-10-09 01:32:00,54.3,45.8,30.20,SE,135,0.0,0.0,73,0.00,,,0.00,VWS V14.01,2013-10-09 06:32:00,
2013-10-09 01:33:00,54.1,45.7,30.20,SE,135,0.0,0.0,73,0.00,,,0.00,VWS V14.01,2013-10-09 06:33:00,
2013-10-09 01:34:00,54.1,45.7,30.20,SE,135,0.0,0.0,73,0.00,,,0.00,VWS V14.01,2013-10-09 06:34:00,
2013-10-09 01:35:00,54.1,45.7,30.20,SE,135,0.0,0.0,73,0.00,,,0.00,VWS V14.01,2013-10-09 06:35:00,
2013-10-09 01:36:00,54.1,45.7,30.20,SE,135,0.0,0.0,73,0.00,,,0.00,VWS V14.01,2013-10-09 06:36:00,
2013-10-09 01:37:00,54.1,45.7,30.20,SE,135,0.0,0.0,73,0.00,,,0.00,VWS V14.01,2013-10-09 06:37:00,
2013-10-09 01:38:00,54.1,45.7,30.20,SE,135,0.0,0.0,73,0.00,,,0.00,VWS V14.01,2013-10-09 06:38:00,
2013-10-09 01:39:00,54.1,45.7,30.20,SE,135,0.0,0.0,73,0.00,,,0.00,VWS V14.01,2013-10-09 06:39:00,
2013-10-09 01:40:00,53.9,45.5,30.20,SE,135,0.0,0.0,73,0.00,,,0.00,VWS V14.01,2013-10-09 06:40:00,
2013-10-09 01:41:00,53.9,45.5,30.20,SE,135,0.0,0.0,73,0.00,,,0.00,VWS V14.01,2013-10-09 06:41:00,
2013-10-09 01:42:00,53.9,45.5,30.20,SE,135,0.0,0.0,73,0.00,,,0.00,VWS V14.01,2013-10-09 06:42:00,
2013-10-09 01:43:00,53.9,45.5,30.20,SE,135,0.0,0.0,73,0.00,,,0.00,VWS V14.01,2013-10-09 06:43:00,
2013-10-09 01:44:00,53.7,45.6,30.20,SE,135,0.0,0.0,74,0.00,,,0.00,VWS V14.01,2013-10-09 06:44:00,
2013-10-09 01:45:00,53.7,45.6,30.21,SE,135,0.0,0.0,74,0.00,,,0.00,VWS V14.01,2013-10-09 06:45:00,
2013-10-09 01:46:00,53.7,45.6,30.21,SE,135,0.0,0.0,74,0.00,,,0.00,VWS V14.01,2013-10-09 06:46:00,
2013-10-09 01:47:00,53.7,45.6,30.21,SE,135,0.0,0.0,74,0.00,,,0.00,VWS V14.01,2013-10-09 06:47:00,
2013-10-09 01:48:00,53.7,45.6,30.21,SE,135,0.0,0.0,74,0.00,,,0.00,VWS V14.01,2013-10-09 06:48:00,
2013-10-09 01:49:00,53.7,45.6,30.20,SE,135,0.0,0.0,74,0.00,,,0.00,VWS V14.01,2013-10-09 06:49:00,
2013-10-09 01:50:00,53.7,45.6,30.21,SE,135,0.0,0.0,74,0.00,,,0.00,VWS V14.01,2013-10-09 06:50:00,
2013-10-09 01:51:00,53.7,45.6,30.21,SE,135,0.0,0.0,74,0.00,,,0.00,VWS V14.01,2013-10-09 06:51:00,
2013-10-09 01:52:00,53.7,45.6,30.21,SE,135,0.0,0.0,74,0.00,,,0.00,VWS V14.01,2013-10-09 06:52:00,
2013-10-09 01:53:00,53.7,45.6,30.21,SE,135,0.0,0.0,74,0.00,,,0.00,VWS V14.01,2013-10-09 06:53:00,
2013-10-09 01:54:00,53.7,45.6,30.21,SE,135,0.0,0.0,74,0.00,,,0.00,VWS V14.01,2013-10-09 06:54:00,
2013-10-09 01:55:00,53.7,45.6,30.21,SE,135,0.0,0.0,74,0.00,,,0.00,VWS V14.01,2013-10-09 06:55:00,
2013-10-09 01:56:00,53.7,45.6,30.21,SE,135,0.0,0.0,74,0.00,,,0.00,VWS V14.01,2013-10-09 06:56:00,
2013-10-09 01:57:00,53.7,45.6,30.21,SE,135,0.6,0.6,74,0.00,,,0.00,VWS V14.01,2013-10-09 06:57:00,
2013-10-09 01:58:00,53.7,45.6,30.21,SE,135,0.6,0.6,74,0.00,,,0.00,VWS V14.01,2013-10-09 06:58:00,
2013-10-09 01:59:00,53.7,45.6,30.21,SE,135,0.6,0.6,74,0.00,,,0.00,VWS V14.01,2013-10-09 06:59:00,
2013-10-09 02:00:00,53.7,45.6,30.21,SE,135,0.6,0.6,74,0.00,,,0.00,VWS V14.01,2013-10-09 07:00:00,
2013-10-09 02:01:00,53.7,45.6,30.21,SE,135,0.6,0.6,74,0.00,,,0.00,VWS V14.01,2013-10-09 07:01:00,
2013-10-09 02:02:00,53.9,45.8,30.21,SE,135,0.0,0.0,74,0.00,,,0.00,VWS V14.01,2013-10-09 07:02:00,
2013-10-09 02:03:00,53.9,45.8,30.21,SE,135,0.0,0.0,74,0.00,,,0.00,VWS V14.01,2013-10-09 07:03:00,
2013-10-09 02:04:00,53.9,45.8,30.21,SE,135,0.0,0.0,74,0.00,,,0.00,VWS V14.01,2013-10-09 07:04:00,
2013-10-09 02:05:00,53.9,45.8,30.21,SE,135,0.0,0.0,74,0.00,,,0.00,VWS V14.01,2013-10-09 07:05:00,
2013-10-09 02:06:00,53.9,45.8,30.21,SE,135,0.0,0.0,74,0.00,,,0.00,VWS V14.01,2013-10-09 07:06:00,
2013-10-09 02:07:00,53.9,45.8,30.21,SE,135,0.0,0.0,74,0.00,,,0.00,VWS V14.01,2013-10-09 07:07:00,
2013-10-09 02:08:00,54.1,46.0,30.22,SE,135,0.0,0.0,74,0.00,,,0.00,VWS V14.01,2013-10-09 07:08:00,
2013-10-09 02:09:00,54.1,46.0,30.21,SE,135,0.0,0.0,74,0.00,,,0.00,VWS V14.01,2013-10-09 07:09:00,
2013-10-09 02:10:00,54.1,46.0,30.22,SE,135,0.0,0.0,74,0.00,,,0.00,VWS V14.01,2013-10-09 07:10:00,
2013-10-09 02:11:00,54.1,46.0,30.22,SE,135,0.0,0.0,74,0.00,,,0.00,VWS V14.01,2013-10-09 07:11:00,
2013-10-09 02:12:00,53.9,45.8,30.22,SE,135,0.0,0.0,74,0.00,,,0.00,VWS V14.01,2013-10-09 07:12:00,
2013-10-09 02:13:00,53.9,45.8,30.22,SE,135,0.0,0.0,74,0.00,,,0.00,VWS V14.01,2013-10-09 07:13:00,
2013-10-09 02:14:00,54.1,46.0,30.22,SE,135,0.0,0.0,74,0.00,,,0.00,VWS V14.01,2013-10-09 07:14:00,
2013-10-09 02:15:00,54.1,46.0,30.22,SE,135,0.0,0.0,74,0.00,,,0.00,VWS V14.01,2013-10-09 07:15:00,
2013-10-09 02:16:00,54.1,46.0,30.22,SE,135,0.0,0.0,74,0.00,,,0.00,VWS V14.01,2013-10-09 07:16:00,
2013-10-09 02:17:00,53.9,45.8,30.21,SE,135,0.0,0.0,74,0.00,,,0.00,VWS V14.01,2013-10-09 07:17:00,
2013-10-09 02:18:00,53.9,45.8,30.21,SE,135,0.0,0.0,74,0.00,,,0.00,VWS V14.01,2013-10-09 07:18:00,
2013-10-09 02:19:00,53.9,45.8,30.21,SE,135,0.0,0.0,74,0.00,,,0.00,VWS V14.01,2013-10-09 07:19:00,
2013-10-09 02:20:00,53.9,45.8,30.21,SE,135,0.0,0.0,74,0.00,,,0.00,VWS V14.01,2013-10-09 07:20:00,
2013-10-09 02:21:00,53.9,45.8,30.21,SE,135,0.0,0.0,74,0.00,,,0.00,VWS V14.01,2013-10-09 07:21:00,
2013-10-09 02:22:00,53.9,46.2,30.22,SE,135,0.0,0.0,75,0.00,,,0.00,VWS V14.01,2013-10-09 07:22:00,
2013-10-09 02:23:00,53.9,46.2,30.21,SE,135,0.0,0.0,75,0.00,,,0.00,VWS V14.01,2013-10-09 07:23:00,
2013-10-09 02:24:00,53.9,46.2,30.22,SE,135,0.0,0.0,75,0.00,,,0.00,VWS V14.01,2013-10-09 07:24:00,
2013-10-09 02:25:00,53.9,46.2,30.22,SE,135,0.0,0.0,75,0.00,,,0.00,VWS V14.01,2013-10-09 07:25:00,
2013-10-09 02:26:00,53.9,46.2,30.22,SE,135,0.0,0.0,75,0.00,,,0.00,VWS V14.01,2013-10-09 07:26:00,
2013-10-09 02:27:00,53.9,46.2,30.22,SSE,158,0.0,0.0,75,0.00,,,0.00,VWS V14.01,2013-10-09 07:27:00,
2013-10-09 02:28:00,53.9,46.2,30.21,SSE,158,0.0,0.0,75,0.00,,,0.00,VWS V14.01,2013-10-09 07:28:00,
2013-10-09 02:29:00,53.9,46.2,30.22,SSE,158,0.0,0.0,75,0.00,,,0.00,VWS V14.01,2013-10-09 07:29:00,
2013-10-09 02:30:00,53.9,46.2,30.22,SSE,158,0.0,0.0,75,0.00,,,0.00,VWS V14.01,2013-10-09 07:30:00,
2013-10-09 02:31:00,53.9,46.2,30.22,SSE,158,0.0,0.0,75,0.00,,,0.00,VWS V14.01,2013-10-09 07:31:00,
2013-10-09 02:32:00,53.7,46.0,30.22,SSE,158,0.0,0.0,75,0.00,,,0.00,VWS V14.01,2013-10-09 07:32:00,
2013-10-09 02:33:00,53.7,46.0,30.22,SE,135,0.0,0.0,75,0.00,,,0.00,VWS V14.01,2013-10-09 07:33:00,
2013-10-09 02:34:00,53.7,46.0,30.22,SE,135,0.0,0.0,75,0.00,,,0.00,VWS V14.01,2013-10-09 07:34:00,
2013-10-09 02:35:00,53.7,46.0,30.22,ESE,112,0.0,0.0,75,0.00,,,0.00,VWS V14.01,2013-10-09 07:35:00,
2013-10-09 02:36:00,53.7,46.0,30.22,ESE,112,0.0,0.0,75,0.00,,,0.00,VWS V14.01,2013-10-09 07:36:00,
2013-10-09 02:37:00,53.7,46.0,30.21,ESE,112,0.0,0.0,75,0.00,,,0.00,VWS V14.01,2013-10-09 07:37:00,
2013-10-09 02:38:00,53.7,46.0,30.22,SE,135,0.8,0.8,75,0.00,,,0.00,VWS V14.01,2013-10-09 07:38:00,
2013-10-09 02:39:00,53.7,46.0,30.22,SE,135,0.8,0.8,75,0.00,,,0.00,VWS V14.01,2013-10-09 07:39:00,
2013-10-09 02:40:00,53.6,46.2,30.21,ESE,112,0.0,0.8,76,0.00,,,0.00,VWS V14.01,2013-10-09 07:40:00,
2013-10-09 02:41:00,53.6,46.2,30.21,ESE,112,0.0,0.0,76,0.00,,,0.00,VWS V14.01,2013-10-09 07:41:00,
2013-10-09 02:42:00,53.4,46.0,30.22,ESE,112,1.3,1.3,76,0.00,,,0.00,VWS V14.01,2013-10-09 07:42:00,
2013-10-09 02:43:00,53.4,46.0,30.22,ESE,112,1.3,1.3,76,0.00,,,0.00,VWS V14.01,2013-10-09 07:43:00,
2013-10-09 02:44:00,53.4,46.0,30.22,ESE,112,0.0,1.3,76,0.00,,,0.00,VWS V14.01,2013-10-09 07:44:00,
2013-10-09 02:45:00,53.4,46.0,30.22,ESE,112,0.0,0.0,76,0.00,,,0.00,VWS V14.01,2013-10-09 07:45:00,
2013-10-09 02:46:00,53.4,46.0,30.22,ESE,112,0.0,0.0,76,0.00,,,0.00,VWS V14.01,2013-10-09 07:46:00,
2013-10-09 02:47:00,53.4,46.0,30.22,ESE,112,0.0,0.0,76,0.00,,,0.00,VWS V14.01,2013-10-09 07:47:00,
2013-10-09 02:48:00,53.4,46.0,30.22,ESE,112,0.0,0.0,76,0.00,,,0.00,VWS V14.01,2013-10-09 07:48:00,
2013-10-09 02:49:00,53.4,46.0,30.22,ESE,112,0.0,0.0,76,0.00,,,0.00,VWS V14.01,2013-10-09 07:49:00,
2013-10-09 02:50:00,53.4,46.0,30.22,ESE,112,0.0,0.0,76,0.00,,,0.00,VWS V14.01,2013-10-09 07:50:00,
2013-10-09 02:51:00,53.4,46.0,30.22,ESE,112,0.0,0.0,76,0.00,,,0.00,VWS V14.01,2013-10-09 07:51:00,
2013-10-09 02:52:00,53.2,45.8,30.22,ESE,112,0.0,0.0,76,0.00,,,0.00,VWS V14.01,2013-10-09 07:52:00,
2013-10-09 02:53:00,53.2,45.8,30.22,ESE,112,0.0,0.0,76,0.00,,,0.00,VWS V14.01,2013-10-09 07:53:00,
2013-10-09 02:54:00,53.2,45.8,30.22,ESE,112,0.0,0.0,76,0.00,,,0.00,VWS V14.01,2013-10-09 07:54:00,
2013-10-09 02:55:00,53.2,45.8,30.22,ESE,112,0.0,0.0,76,0.00,,,0.00,VWS V14.01,2013-10-09 07:55:00,
2013-10-09 02:56:00,53.2,45.8,30.22,ESE,112,0.0,0.0,76,0.00,,,0.00,VWS V14.01,2013-10-09 07:56:00,
2013-10-09 02:57:00,53.0,45.7,30.21,ESE,112,0.0,0.0,76,0.00,,,0.00,VWS V14.01,2013-10-09 07:57:00,
2013-10-09 02:58:00,53.0,45.7,30.21,ESE,112,0.0,0.0,76,0.00,,,0.00,VWS V14.01,2013-10-09 07:58:00,
2013-10-09 02:59:00,53.0,45.7,30.21,ESE,112,0.0,0.0,76,0.00,,,0.00,VWS V14.01,2013-10-09 07:59:00,
2013-10-09 03:00:00,53.0,45.7,30.21,ESE,112,0.0,0.0,76,0.00,,,0.00,VWS V14.01,2013-10-09 08:00:00,
2013-10-09 03:01:00,53.0,45.7,30.21,ESE,112,0.0,0.0,76,0.00,,,0.00,VWS V14.01,2013-10-09 08:01:00,
2013-10-09 03:02:00,53.0,45.7,30.21,ESE,112,0.0,0.0,76,0.00,,,0.00,VWS V14.01,2013-10-09 08:02:00,
2013-10-09 03:03:00,52.8,45.5,30.21,ESE,112,0.0,0.0,76,0.00,,,0.00,VWS V14.01,2013-10-09 08:03:00,
2013-10-09 03:04:00,52.8,45.5,30.22,ESE,112,0.0,0.0,76,0.00,,,0.00,VWS V14.01,2013-10-09 08:04:00,
2013-10-09 03:05:00,52.8,45.5,30.22,ESE,112,0.0,0.0,76,0.00,,,0.00,VWS V14.01,2013-10-09 08:05:00,
2013-10-09 03:06:00,52.8,45.5,30.22,ESE,112,0.0,0.0,76,0.00,,,0.00,VWS V14.01,2013-10-09 08:06:00,
2013-10-09 03:07:00,52.8,45.5,30.21,ESE,112,0.0,0.0,76,0.00,,,0.00,VWS V14.01,2013-10-09 08:07:00,
2013-10-09 03:08:00,52.8,45.5,30.21,ESE,112,0.0,0.0,76,0.00,,,0.00,VWS V14.01,2013-10-09 08:08:00,
2013-10-09 03:09:00,52.8,45.5,30.21,ESE,112,0.0,0.0,76,0.00,,,0.00,VWS V14.01,2013-10-09 08:09:00,
2013-10-09 03:10:00,52.8,45.5,30.21,ESE,112,0.0,0.0,76,0.00,,,0.00,VWS V14.01,2013-10-09 08:10:00,
2013-10-09 03:11:00,52.8,45.5,30.21,ESE,112,0.0,0.0,76,0.00,,,0.00,VWS V14.01,2013-10-09 08:11:00,
2013-10-09 03:12:00,52.7,45.4,30.21,ESE,112,0.0,0.0,76,0.00,,,0.00,VWS V14.01,2013-10-09 08:12:00,
2013-10-09 03:13:00,52.7,45.4,30.21,ESE,112,0.0,0.0,76,0.00,,,0.00,VWS V14.01,2013-10-09 08:13:00,
2013-10-09 03:14:00,52.5,45.2,30.21,ESE,112,0.0,0.0,76,0.00,,,0.00,VWS V14.01,2013-10-09 08:14:00,
2013-10-09 03:15:00,52.5,45.2,30.22,ESE,112,0.0,0.0,76,0.00,,,0.00,VWS V14.01,2013-10-09 08:15:00,
2013-10-09 03:16:00,52.5,45.2,30.22,ESE,112,0.0,0.0,76,0.00,,,0.00,VWS V14.01,2013-10-09 08:16:00,
2013-10-09 03:17:00,52.5,45.2,30.22,ESE,112,0.0,0.0,76,0.00,,,0.00,VWS V14.01,2013-10-09 08:17:00,
2013-10-09 03:18:00,52.5,45.5,30.21,ESE,112,0.0,0.0,77,0.00,,,0.00,VWS V14.01,2013-10-09 08:18:00,
2013-10-09 03:19:00,52.5,45.5,30.21,ESE,112,0.0,0.0,77,0.00,,,0.00,VWS V14.01,2013-10-09 08:19:00,
2013-10-09 03:20:00,52.5,45.5,30.21,ESE,112,0.0,0.0,77,0.00,,,0.00,VWS V14.01,2013-10-09 08:20:00,
2013-10-09 03:21:00,52.5,45.5,30.21,ESE,112,0.0,0.0,77,0.00,,,0.00,VWS V14.01,2013-10-09 08:21:00,
2013-10-09 03:22:00,52.5,45.5,30.21,ESE,112,0.0,0.0,77,0.00,,,0.00,VWS V14.01,2013-10-09 08:22:00,
2013-10-09 03:23:00,52.3,45.3,30.21,ESE,112,0.0,0.0,77,0.00,,,0.00,VWS V14.01,2013-10-09 08:23:00,
2013-10-09 03:24:00,52.3,45.3,30.21,ESE,112,0.0,0.0,77,0.00,,,0.00,VWS V14.01,2013-10-09 08:24:00,
2013-10-09 03:25:00,52.3,45.3,30.22,ESE,112,0.0,0.0,77,0.00,,,0.00,VWS V14.01,2013-10-09 08:25:00,
2013-10-09 03:26:00,53.9,46.2,30.22,SE,135,0.0,0.0,75,0.00,,,0.00,VWS V14.01,2013-10-09 08:26:00,
2013-10-09 03:27:00,53.9,46.2,30.22,SSE,158,0.0,0.0,75,0.00,,,0.00,VWS V14.01,2013-10-09 08:27:00,
2013-10-09 03:28:00,53.9,46.2,30.21,SSE,158,0.0,0.0,75,0.00,,,0.00,VWS V14.01,2013-10-09 08:28:00,
2013-10-09 03:29:00,53.9,46.2,30.22,SSE,158,0.0,0.0,75,0.00,,,0.00,VWS V14.01,2013-10-09 08:29:00,
2013-10-09 03:30:00,53.9,46.2,30.22,SSE,158,0.0,0.0,75,0.00,,,0.00,VWS V14.01,2013-10-09 08:30:00,
2013-10-09 03:31:00,53.7,46.0,30.21,SSE,158,0.0,0.0,75,0.00,,,0.00,VWS V14.01,2013-10-09 08:31:00,
2013-10-09 03:32:00,53.7,46.0,30.22,SSE,158,0.0,0.0,75,0.00,,,0.00,VWS V14.01,2013-10-09 08:32:00,
2013-10-09 03:33:00,53.7,46.0,30.22,SE,135,0.0,0.0,75,0.00,,,0.00,VWS V14.01,2013-10-09 08:33:00,
2013-10-09 03:34:00,53.7,46.0,30.22,SE,135,0.0,0.0,75,0.00,,,0.00,VWS V14.01,2013-10-09 08:34:00,
2013-10-09 03:35:00,53.7,46.0,30.22,ESE,112,0.0,0.0,75,0.00,,,0.00,VWS V14.01,2013-10-09 08:35:00,
2013-10-09 03:36:00,53.7,46.0,30.22,ESE,112,0.0,0.0,75,0.00,,,0.00,VWS V14.01,2013-10-09 08:36:00,
2013-10-09 03:37:00,53.7,46.0,30.21,ESE,112,0.0,0.0,75,0.00,,,0.00,VWS V14.01,2013-10-09 08:37:00,
2013-10-09 03:38:00,53.7,46.0,30.22,SE,135,0.8,0.8,75,0.00,,,0.00,VWS V14.01,2013-10-09 08:38:00,
2013-10-09 03:39:00,53.7,46.0,30.22,SE,135,0.8,0.8,75,0.00,,,0.00,VWS V14.01,2013-10-09 08:39:00,
2013-10-09 03:40:00,53.6,46.2,30.21,ESE,112,0.0,0.8,76,0.00,,,0.00,VWS V14.01,2013-10-09 08:40:00,
2013-10-09 03:41:00,53.6,46.2,30.22,ESE,112,0.0,0.0,76,0.00,,,0.00,VWS V14.01,2013-10-09 08:41:00,
2013-10-09 03:42:00,53.4,46.0,30.22,ESE,112,1.3,1.3,76,0.00,,,0.00,VWS V14.01,2013-10-09 08:42:00,
2013-10-09 03:43:00,53.4,46.0,30.22,ESE,112,1.3,1.3,76,0.00,,,0.00,VWS V14.01,2013-10-09 08:43:00,
2013-10-09 03:44:00,53.4,46.0,30.22,ESE,112,0.0,1.3,76,0.00,,,0.00,VWS V14.01,2013-10-09 08:44:00,
2013-10-09 03:45:00,53.4,46.0,30.22,ESE,112,0.0,0.0,76,0.00,,,0.00,VWS V14.01,2013-10-09 08:45:00,
2013-10-09 03:46:00,53.4,46.0,30.22,ESE,112,0.0,0.0,76,0.00,,,0.00,VWS V14.01,2013-10-09 08:46:00,
2013-10-09 03:47:00,53.4,46.0,30.22,ESE,112,0.0,0.0,76,0.00,,,0.00,VWS V14.01,2013-10-09 08:47:00,
2013-10-09 03:48:00,53.4,46.0,30.22,ESE,112,0.0,0.0,76,0.00,,,0.00,VWS V14.01,2013-10-09 08:48:00,
2013-10-09 03:49:00,53.4,46.0,30.22,ESE,112,0.0,0.0,76,0.00,,,0.00,VWS V14.01,2013-10-09 08:49:00,
2013-10-09 03:50:00,53.4,46.0,30.22,ESE,112,0.0,0.0,76,0.00,,,0.00,VWS V14.01,2013-10-09 08:50:00,
2013-10-09 03:51:00,53.4,46.0,30.21,ESE,112,0.0,0.0,76,0.00,,,0.00,VWS V14.01,2013-10-09 08:51:00,
2013-10-09 03:52:00,53.2,45.8,30.22,ESE,112,0.0,0.0,76,0.00,,,0.00,VWS V14.01,2013-10-09 08:52:00,
2013-10-09 03:53:00,53.2,45.8,30.22,ESE,112,0.0,0.0,76,0.00,,,0.00,VWS V14.01,2013-10-09 08:53:00,
2013-10-09 03:54:00,53.2,45.8,30.22,ESE,112,0.0,0.0,76,0.00,,,0.00,VWS V14.01,2013-10-09 08:54:00,
2013-10-09 03:55:00,53.2,45.8,30.22,ESE,112,0.0,0.0,76,0.00,,,0.00,VWS V14.01,2013-10-09 08:55:00,
2013-10-09 03:56:00,53.2,45.8,30.21,ESE,112,0.0,0.0,76,0.00,,,0.00,VWS V14.01,2013-10-09 08:56:00,
2013-10-09 03:57:00,53.0,45.7,30.21,ESE,112,0.0,0.0,76,0.00,,,0.00,VWS V14.01,2013-10-09 08:57:00,
2013-10-09 03:58:00,53.2,45.9,30.22,ESE,112,0.0,0.0,76,2.04,,,2.04,VWS V14.01,2013-10-09 08:58:00,
2013-10-09 03:59:00,53.0,45.7,30.21,ESE,112,0.0,0.0,76,0.00,,,0.00,VWS V14.01,2013-10-09 08:59:00,
2013-10-09 04:00:00,53.0,45.7,30.21,ESE,112,0.0,0.0,76,0.00,,,0.00,VWS V14.01,2013-10-09 09:00:00,
2013-10-09 04:01:00,53.0,45.7,30.21,ESE,112,0.0,0.0,76,0.00,,,0.00,VWS V14.01,2013-10-09 09:01:00,
2013-10-09 04:02:00,53.0,45.7,30.21,ESE,112,0.0,0.0,76,0.00,,,0.00,VWS V14.01,2013-10-09 09:02:00,
2013-10-09 04:03:00,52.8,45.5,30.21,ESE,112,0.0,0.0,76,0.00,,,0.00,VWS V14.01,2013-10-09 09:03:00,
2013-10-09 04:04:00,52.8,45.5,30.22,ESE,112,0.0,0.0,76,0.00,,,0.00,VWS V14.01,2013-10-09 09:04:00,
2013-10-09 04:05:00,52.8,45.5,30.22,ESE,112,0.0,0.0,76,0.00,,,0.00,VWS V14.01,2013-10-09 09:05:00,
2013-10-09 04:06:00,52.8,45.5,30.21,ESE,112,0.0,0.0,76,0.00,,,0.00,VWS V14.01,2013-10-09 09:06:00,
2013-10-09 04:07:00,52.8,45.5,30.21,ESE,112,0.0,0.0,76,0.00,,,0.00,VWS V14.01,2013-10-09 09:07:00,
2013-10-09 04:08:00,52.8,45.5,30.21,ESE,112,0.0,0.0,76,0.00,,,0.00,VWS V14.01,2013-10-09 09:08:00,
2013-10-09 04:09:00,52.8,45.5,30.21,ESE,112,0.0,0.0,76,0.00,,,0.00,VWS V14.01,2013-10-09 09:09:00,
2013-10-09 04:10:00,52.8,45.5,30.21,ESE,112,0.0,0.0,76,0.00,,,0.00,VWS V14.01,2013-10-09 09:10:00,
2013-10-09 04:11:00,52.8,45.5,30.22,ESE,112,0.0,0.0,76,0.00,,,0.00,VWS V14.01,2013-10-09 09:11:00,
2013-10-09 04:12:00,52.7,45.4,30.21,ESE,112,0.0,0.0,76,0.00,,,0.00,VWS V14.01,2013-10-09 09:12:00,
2013-10-09 04:13:00,52.7,45.4,30.21,ESE,112,0.0,0.0,76,0.00,,,0.00,VWS V14.01,2013-10-09 09:13:00,
2013-10-09 04:14:00,52.5,45.2,30.21,ESE,112,0.0,0.0,76,0.00,,,0.00,VWS V14.01,2013-10-09 09:14:00,
2013-10-09 04:15:00,52.5,45.2,30.22,ESE,112,0.0,0.0,76,0.00,,,0.00,VWS V14.01,2013-10-09 09:15:00,
2013-10-09 04:16:00,52.5,45.2,30.21,ESE,112,0.0,0.0,76,0.00,,,0.00,VWS V14.01,2013-10-09 09:16:00,
2013-10-09 04:17:00,52.5,45.2,30.22,ESE,112,0.0,0.0,76,0.00,,,0.00,VWS V14.01,2013-10-09 09:17:00,
2013-10-09 04:18:00,52.5,45.5,30.21,ESE,112,0.0,0.0,77,0.00,,,0.00,VWS V14.01,2013-10-09 09:18:00,
2013-10-09 04:19:00,52.5,45.5,30.21,ESE,112,0.0,0.0,77,0.00,,,0.00,VWS V14.01,2013-10-09 09:19:00,
2013-10-09 04:20:00,52.5,45.5,30.21,ESE,112,0.0,0.0,77,0.00,,,0.00,VWS V14.01,2013-10-09 09:20:00,
2013-10-09 04:21:00,52.5,45.5,30.21,ESE,112,0.0,0.0,77,0.00,,,0.00,VWS V14.01,2013-10-09 09:21:00,
2013-10-09 04:22:00,52.5,45.5,30.21,ESE,112,0.0,0.0,77,0.00,,,0.00,VWS V14.01,2013-10-09 09:22:00,
2013-10-09 04:23:00,52.3,45.3,30.21,ESE,112,0.0,0.0,77,0.00,,,0.00,VWS V14.01,2013-10-09 09:23:00,
2013-10-09 04:24:00,52.3,45.3,30.21,ESE,112,0.0,0.0,77,0.00,,,0.00,VWS V14.01,2013-10-09 09:24:00,
2013-10-09 04:25:00,52.3,45.3,30.22,ESE,112,0.0,0.0,77,0.00,,,0.00,VWS V14.01,2013-10-09 09:25:00,
2013-10-09 04:58:00,53.2,45.9,30.22,ESE,112,0.0,0.0,76,2.04,,,2.04,VWS V14.01,2013-10-09 09:58:00,
2013-10-09 05:58:00,51.1,45.1,30.24,ESE,112,1.3,1.3,80,2.04,,,2.04,VWS V14.01,2013-10-09 10:58:00,
2013-10-09 06:04:00,51.1,45.1,30.24,ESE,112,1.3,1.3,80,2.04,,,2.04,VWS V14.01,2013-10-09 11:04:00,
2013-10-09 06:05:00,48.5,43.6,30.25,ESE,112,1.1,1.3,83,0.00,,,0.00,VWS V14.01,2013-10-09 11:05:00,
2013-10-09 06:06:00,48.5,43.6,30.24,ESE,112,1.1,1.1,83,0.00,,,0.00,VWS V14.01,2013-10-09 11:06:00,
2013-10-09 06:07:00,48.5,43.6,30.25,ESE,112,1.1,1.1,83,0.00,,,0.00,VWS V14.01,2013-10-09 11:07:00,
2013-10-09 06:08:00,48.3,43.4,30.25,ESE,112,0.0,1.1,83,0.00,,,0.00,VWS V14.01,2013-10-09 11:08:00,
2013-10-09 06:09:00,48.3,43.4,30.25,ESE,112,0.0,0.0,83,0.00,,,0.00,VWS V14.01,2013-10-09 11:09:00,
2013-10-09 06:10:00,48.3,43.4,30.25,ESE,112,0.0,0.0,83,0.00,,,0.00,VWS V14.01,2013-10-09 11:10:00,
2013-10-09 06:11:00,48.3,43.4,30.25,ESE,112,0.0,0.0,83,0.00,,,0.00,VWS V14.01,2013-10-09 11:11:00,
2013-10-09 06:12:00,48.3,43.4,30.25,ESE,112,0.0,0.0,83,0.00,,,0.00,VWS V14.01,2013-10-09 11:12:00,
2013-10-09 06:13:00,48.3,43.4,30.25,ESE,112,0.0,0.0,83,0.00,,,0.00,VWS V14.01,2013-10-09 11:13:00,
2013-10-09 06:14:00,48.2,43.3,30.25,ESE,112,0.0,0.0,83,0.00,,,0.00,VWS V14.01,2013-10-09 11:14:00,
2013-10-09 06:15:00,48.2,43.3,30.25,ESE,112,0.0,0.0,83,0.00,,,0.00,VWS V14.01,2013-10-09 11:15:00,
2013-10-09 06:16:00,48.0,43.1,30.25,ESE,112,0.4,0.4,83,0.00,,,0.00,VWS V14.01,2013-10-09 11:16:00,
2013-10-09 06:17:00,48.0,43.1,30.25,ESE,112,0.4,0.4,83,0.00,,,0.00,VWS V14.01,2013-10-09 11:17:00,
2013-10-09 06:18:00,48.0,43.1,30.25,ESE,112,0.0,0.4,83,0.00,,,0.00,VWS V14.01,2013-10-09 11:18:00,
2013-10-09 06:19:00,48.0,43.4,30.25,ESE,112,0.0,0.0,84,0.00,,,0.00,VWS V14.01,2013-10-09 11:19:00,
2013-10-09 06:20:00,48.0,43.4,30.25,SE,135,0.0,0.0,84,0.00,,,0.00,VWS V14.01,2013-10-09 11:20:00,
2013-10-09 06:21:00,48.0,43.4,30.25,SE,135,0.0,0.0,84,0.00,,,0.00,VWS V14.01,2013-10-09 11:21:00,
2013-10-09 06:24:00,48.0,43.4,30.25,SE,135,0.0,0.0,84,0.00,,,0.00,VWS V14.01,2013-10-09 11:24:00,
2013-10-09 06:25:00,48.2,43.6,30.26,SE,135,0.0,0.0,84,0.00,,,0.00,VWS V14.01,2013-10-09 11:25:00,
2013-10-09 06:27:00,48.2,43.6,30.25,SE,135,0.0,0.0,84,0.00,,,0.00,VWS V14.01,2013-10-09 11:27:00,
2013-10-09 06:29:00,48.3,43.7,30.26,SE,135,0.0,0.0,84,0.00,,,0.00,VWS V14.01,2013-10-09 11:29:00,
2013-10-09 06:30:00,48.3,43.7,30.25,SE,135,0.0,0.0,84,0.00,,,0.00,VWS V14.01,2013-10-09 11:30:00,
2013-10-09 06:34:00,48.3,43.7,30.25,SE,135,0.0,0.0,84,0.00,,,0.00,VWS V14.01,2013-10-09 11:34:00,
2013-10-09 06:35:00,48.3,43.7,30.25,SE,135,1.3,1.3,84,0.00,,,0.00,VWS V14.01,2013-10-09 11:35:00,
2013-10-09 06:36:00,48.2,43.6,30.26,SE,135,1.3,1.3,84,0.00,,,0.00,VWS V14.01,2013-10-09 11:36:00,
2013-10-09 06:37:00,48.2,43.6,30.25,SE,135,1.3,1.3,84,0.00,,,0.00,VWS V14.01,2013-10-09 11:37:00,
2013-10-09 06:38:00,48.2,43.6,30.25,SE,135,0.0,1.3,84,0.00,,,0.00,VWS V14.01,2013-10-09 11:38:00,
2013-10-09 06:39:00,48.2,43.6,30.26,SE,135,0.0,0.0,84,0.00,,,0.00,VWS V14.01,2013-10-09 11:39:00,
2013-10-09 06:40:00,48.0,43.4,30.26,SE,135,0.0,0.0,84,0.00,,,0.00,VWS V14.01,2013-10-09 11:40:00,
2013-10-09 06:43:00,48.0,43.4,30.26,SE,135,0.0,0.0,84,0.00,,,0.00,VWS V14.01,2013-10-09 11:43:00,
2013-10-09 06:44:00,48.0,43.4,30.26,SE,135,0.0,0.0,84,0.00,,,0.00,VWS V14.01,2013-10-09 11:44:00,
2013-10-09 06:46:00,48.0,43.4,30.26,ESE,112,1.3,1.3,84,0.00,,,0.00,VWS V14.01,2013-10-09 11:46:00,
2013-10-09 06:47:00,48.0,43.4,30.26,ESE,112,1.3,1.3,84,0.00,,,0.00,VWS V14.01,2013-10-09 11:47:00,
2013-10-09 06:48:00,48.0,43.4,30.26,ESE,112,0.4,1.3,84,0.00,,,0.00,VWS V14.01,2013-10-09 11:48:00,
2013-10-09 06:49:00,48.0,43.4,30.26,ESE,112,0.4,0.4,84,0.00,,,0.00,VWS V14.01,2013-10-09 11:49:00,
2013-10-09 06:50:00,47.8,43.2,30.26,ESE,112,0.6,0.6,84,0.00,,,0.00,VWS V14.01,2013-10-09 11:50:00,
2013-10-09 06:53:00,48.0,43.4,30.26,ESE,112,0.0,0.6,84,0.00,,,0.00,VWS V14.01,2013-10-09 11:53:00,
2013-10-09 06:54:00,48.0,43.4,30.26,ESE,112,0.0,0.0,84,0.00,,,0.00,VWS V14.01,2013-10-09 11:54:00,
2013-10-09 06:56:00,48.0,43.4,30.26,ESE,112,0.4,0.4,84,0.00,,,0.00,VWS V14.01,2013-10-09 11:56:00,
2013-10-09 06:57:00,48.0,43.7,30.26,ESE,112,1.7,1.7,85,0.00,,,0.00,VWS V14.01,2013-10-09 11:57:00,
2013-10-09 06:58:00,48.0,43.7,30.26,ESE,112,1.7,1.7,85,0.00,,,0.00,VWS V14.01,2013-10-09 11:58:00,
2013-10-09 06:59:00,48.0,43.7,30.26,ESE,112,1.7,1.7,85,0.00,,,0.00,VWS V14.01,2013-10-09 11:59:00,
2013-10-09 07:00:00,48.0,43.7,30.26,ESE,112,1.7,1.7,85,0.00,,,0.00,VWS V14.01,2013-10-09 12:00:00,
2013-10-09 07:01:00,48.0,43.4,30.26,ESE,112,0.0,1.7,84,0.00,,,0.00,VWS V14.01,2013-10-09 12:01:00,
2013-10-09 07:02:00,48.0,43.4,30.26,ESE,112,0.0,0.0,84,0.00,,,0.00,VWS V14.01,2013-10-09 12:02:00,
2013-10-09 07:03:00,48.0,43.4,30.26,ESE,112,0.0,0.0,84,0.00,,,0.00,VWS V14.01,2013-10-09 12:03:00,
2013-10-09 07:04:00,47.6,43.0,30.26,ESE,112,0.0,0.0,84,0.00,,,0.00,VWS V14.01,2013-10-09 12:04:00,
2013-10-09 07:05:00,47.6,43.0,30.26,ESE,112,0.6,0.6,84,0.00,,,0.00,VWS V14.01,2013-10-09 12:05:00,
2013-10-09 07:06:00,47.4,43.1,30.26,ESE,112,0.6,0.6,85,0.00,,,0.00,VWS V14.01,2013-10-09 12:06:00,
2013-10-09 07:07:00,47.4,43.1,30.26,ESE,112,0.6,0.6,85,0.00,,,0.00,VWS V14.01,2013-10-09 12:07:00,
2013-10-09 07:08:00,47.4,43.1,30.26,ESE,112,0.6,0.6,85,0.00,,,0.00,VWS V14.01,2013-10-09 12:08:00,
2013-10-09 07:09:00,47.4,43.1,30.26,ESE,112,0.8,0.8,85,0.00,,,0.00,VWS V14.01,2013-10-09 12:09:00,
2013-10-09 07:10:00,47.6,43.3,30.26,ESE,112,0.0,0.8,85,0.00,,,0.00,VWS V14.01,2013-10-09 12:10:00,
2013-10-09 07:11:00,47.6,43.3,30.26,ESE,112,0.0,0.0,85,0.00,,,0.00,VWS V14.01,2013-10-09 12:11:00,
2013-10-09 07:12:00,47.8,43.5,30.26,ESE,112,0.0,0.0,85,0.00,,,0.00,VWS V14.01,2013-10-09 12:12:00,
2013-10-09 07:13:00,47.8,43.5,30.26,ESE,112,0.0,0.0,85,0.00,,,0.00,VWS V14.01,2013-10-09 12:13:00,
2013-10-09 07:14:00,48.0,43.7,30.26,ESE,112,0.0,0.0,85,0.00,,,0.00,VWS V14.01,2013-10-09 12:14:00,
2013-10-09 07:15:00,48.0,43.7,30.26,ESE,112,0.0,0.0,85,0.00,,,0.00,VWS V14.01,2013-10-09 12:15:00,
2013-10-09 07:16:00,48.5,43.9,30.26,ESE,112,0.0,0.0,84,0.00,,,0.00,VWS V14.01,2013-10-09 12:16:00,
2013-10-09 07:17:00,48.5,43.9,30.26,ESE,112,0.0,0.0,84,0.00,,,0.00,VWS V14.01,2013-10-09 12:17:00,
2013-10-09 07:18:00,48.5,43.9,30.26,ESE,112,0.0,0.0,84,0.00,,,0.00,VWS V14.01,2013-10-09 12:18:00,
2013-10-09 07:19:00,49.1,44.5,30.26,ESE,112,1.1,1.1,84,0.00,,,0.00,VWS V14.01,2013-10-09 12:19:00,
2013-10-09 07:20:00,49.1,44.5,30.26,ESE,112,0.0,1.1,84,0.00,,,0.00,VWS V14.01,2013-10-09 12:20:00,
2013-10-09 07:21:00,49.6,45.0,30.27,ESE,112,0.0,0.0,84,0.00,,,0.00,VWS V14.01,2013-10-09 12:21:00,
2013-10-09 07:22:00,49.6,45.0,30.27,ESE,112,0.0,0.0,84,0.00,,,0.00,VWS V14.01,2013-10-09 12:22:00,
2013-10-09 07:23:00,49.6,45.0,30.27,ESE,112,0.0,0.0,84,0.00,,,0.00,VWS V14.01,2013-10-09 12:23:00,
2013-10-09 07:24:00,50.1,45.2,30.27,ESE,112,0.0,0.0,83,0.00,,,0.00,VWS V14.01,2013-10-09 12:24:00,
2013-10-09 07:25:00,50.5,45.5,30.27,ESE,112,0.0,0.0,83,0.00,,,0.00,VWS V14.01,2013-10-09 12:25:00,
2013-10-09 07:26:00,50.5,45.5,30.27,ESE,112,0.0,0.0,83,0.00,,,0.00,VWS V14.01,2013-10-09 12:26:00,
2013-10-09 07:27:00,50.9,45.9,30.27,ESE,112,2.0,2.0,83,0.00,,,0.00,VWS V14.01,2013-10-09 12:27:00,
2013-10-09 07:28:00,50.9,45.9,30.27,ESE,112,2.0,2.0,83,0.00,,,0.00,VWS V14.01,2013-10-09 12:28:00,
2013-10-09 07:29:00,51.2,45.9,30.27,ESE,112,1.5,2.0,82,0.00,,,0.00,VWS V14.01,2013-10-09 12:29:00,
2013-10-09 07:30:00,51.2,45.9,30.27,ESE,112,1.5,1.5,82,0.00,,,0.00,VWS V14.01,2013-10-09 12:30:00,
2013-10-09 07:31:00,51.6,46.3,30.26,ESE,112,1.1,1.5,82,0.00,,,0.00,VWS V14.01,2013-10-09 12:31:00,
2013-10-09 07:32:00,51.6,46.3,30.27,ESE,112,1.1,1.1,82,0.00,,,0.00,VWS V14.01,2013-10-09 12:32:00,
2013-10-09 07:33:00,51.6,46.3,30.27,ESE,112,1.1,1.1,82,0.00,,,0.00,VWS V14.01,2013-10-09 12:33:00,
2013-10-09 07:34:00,51.8,46.2,30.27,ESE,112,2.4,2.4,81,0.00,,,0.00,VWS V14.01,2013-10-09 12:34:00,
2013-10-09 07:35:00,51.8,46.2,30.27,ESE,112,2.6,2.6,81,0.00,,,0.00,VWS V14.01,2013-10-09 12:35:00,
2013-10-09 07:36:00,52.1,46.5,30.27,ESE,112,2.6,2.6,81,0.00,,,0.00,VWS V14.01,2013-10-09 12:36:00,
2013-10-09 07:37:00,52.1,46.5,30.27,ESE,112,2.6,2.6,81,0.00,,,0.00,VWS V14.01,2013-10-09 12:37:00,
2013-10-09 07:38:00,52.1,46.5,30.27,ESE,112,2.6,2.6,81,0.00,,,0.00,VWS V14.01,2013-10-09 12:38:00,
2013-10-09 07:39:00,52.3,46.7,30.27,ESE,112,4.0,4.0,81,0.00,,,0.00,VWS V14.01,2013-10-09 12:39:00,
2013-10-09 07:40:00,52.7,46.7,30.27,ESE,112,3.5,4.0,80,0.00,,,0.00,VWS V14.01,2013-10-09 12:40:00,
2013-10-09 07:41:00,52.7,46.7,30.27,ESE,112,3.5,3.5,80,0.00,,,0.00,VWS V14.01,2013-10-09 12:41:00,
2013-10-09 07:42:00,53.2,47.2,30.27,ESE,112,0.0,3.5,80,0.00,,,0.00,VWS V14.01,2013-10-09 12:42:00,
2013-10-09 07:43:00,53.2,47.2,30.27,ESE,112,0.0,0.0,80,0.00,,,0.00,VWS V14.01,2013-10-09 12:43:00,
2013-10-09 07:44:00,53.9,47.5,30.27,ESE,112,0.0,0.0,79,0.00,,,0.00,VWS V14.01,2013-10-09 12:44:00,
2013-10-09 07:45:00,53.9,47.5,30.27,ESE,112,0.0,0.0,79,0.00,,,0.00,VWS V14.01,2013-10-09 12:45:00,
2013-10-09 07:46:00,54.5,48.1,30.27,ESE,112,0.0,0.0,79,0.00,,,0.00,VWS V14.01,2013-10-09 12:46:00,
2013-10-09 07:47:00,54.5,48.1,30.27,ESE,112,0.0,0.0,79,0.00,,,0.00,VWS V14.01,2013-10-09 12:47:00,
2013-10-09 07:48:00,48.0,43.4,30.26,ESE,112,0.4,1.3,84,0.00,,,0.00,VWS V14.01,2013-10-09 12:48:00,
2013-10-09 07:49:00,48.0,43.4,30.26,ESE,112,0.4,0.4,84,0.00,,,0.00,VWS V14.01,2013-10-09 12:49:00,
2013-10-09 07:50:00,47.8,43.2,30.26,ESE,112,0.6,0.6,84,0.00,,,0.00,VWS V14.01,2013-10-09 12:50:00,
2013-10-09 07:51:00,47.8,43.2,30.26,ESE,112,0.6,0.6,84,0.00,,,0.00,VWS V14.01,2013-10-09 12:51:00,
2013-10-09 07:52:00,47.8,43.2,30.26,ESE,112,0.6,0.6,84,0.00,,,0.00,VWS V14.01,2013-10-09 12:52:00,
2013-10-09 07:53:00,48.0,43.4,30.26,ESE,112,0.0,0.6,84,0.00,,,0.00,VWS V14.01,2013-10-09 12:53:00,
2013-10-09 07:54:00,48.0,43.4,30.26,ESE,112,0.0,0.0,84,0.00,,,0.00,VWS V14.01,2013-10-09 12:54:00,
2013-10-09 07:55:00,48.0,43.4,30.26,ESE,112,0.4,0.4,84,0.00,,,0.00,VWS V14.01,2013-10-09 12:55:00,
2013-10-09 07:56:00,48.0,43.4,30.26,ESE,112,0.4,0.4,84,0.00,,,0.00,VWS V14.01,2013-10-09 12:56:00,
2013-10-09 07:57:00,48.0,43.7,30.26,ESE,112,1.7,1.7,85,0.00,,,0.00,VWS V14.01,2013-10-09 12:57:00,
2013-10-09 07:58:00,48.0,43.4,30.26,ESE,112,0.4,0.4,84,2.04,,,2.04,VWS V14.01,2013-10-09 12:58:00,
2013-10-09 07:59:00,48.0,43.7,30.26,ESE,112,1.7,1.7,85,0.00,,,0.00,VWS V14.01,2013-10-09 12:59:00,
2013-10-09 08:00:00,48.0,43.7,30.26,ESE,112,1.7,1.7,85,0.00,,,0.00,VWS V14.01,2013-10-09 13:00:00,
2013-10-09 08:01:00,48.0,43.4,30.26,ESE,112,0.0,1.7,84,0.00,,,0.00,VWS V14.01,2013-10-09 13:01:00,
2013-10-09 08:02:00,48.0,43.4,30.26,ESE,112,0.0,0.0,84,0.00,,,0.00,VWS V14.01,2013-10-09 13:02:00,
2013-10-09 08:03:00,47.6,43.0,30.26,ESE,112,0.0,0.0,84,0.00,,,0.00,VWS V14.01,2013-10-09 13:03:00,
2013-10-09 08:04:00,47.6,43.0,30.26,ESE,112,0.0,0.0,84,0.00,,,0.00,VWS V14.01,2013-10-09 13:04:00,
2013-10-09 08:05:00,47.6,43.0,30.26,ESE,112,0.6,0.6,84,0.00,,,0.00,VWS V14.01,2013-10-09 13:05:00,
2013-10-09 08:06:00,47.4,43.1,30.26,ESE,112,0.6,0.6,85,0.00,,,0.00,VWS V14.01,2013-10-09 13:06:00,
2013-10-09 08:07:00,47.4,43.1,30.26,ESE,112,0.6,0.6,85,0.00,,,0.00,VWS V14.01,2013-10-09 13:07:00,
2013-10-09 08:08:00,47.4,43.1,30.26,ESE,112,0.8,0.8,85,0.00,,,0.00,VWS V14.01,2013-10-09 13:08:00,
2013-10-09 08:09:00,47.4,43.1,30.26,ESE,112,0.8,0.8,85,0.00,,,0.00,VWS V14.01,2013-10-09 13:09:00,
2013-10-09 08:10:00,47.6,43.3,30.26,ESE,112,0.0,0.8,85,0.00,,,0.00,VWS V14.01,2013-10-09 13:10:00,
2013-10-09 08:11:00,47.6,43.3,30.26,ESE,112,0.0,0.0,85,0.00,,,0.00,VWS V14.01,2013-10-09 13:11:00,
2013-10-09 08:12:00,47.8,43.5,30.26,ESE,112,0.0,0.0,85,0.00,,,0.00,VWS V14.01,2013-10-09 13:12:00,
2013-10-09 08:13:00,47.8,43.5,30.26,ESE,112,0.0,0.0,85,0.00,,,0.00,VWS V14.01,2013-10-09 13:13:00,
2013-10-09 08:14:00,48.0,43.7,30.26,ESE,112,0.0,0.0,85,0.00,,,0.00,VWS V14.01,2013-10-09 13:14:00,
2013-10-09 08:15:00,48.0,43.7,30.26,ESE,112,0.0,0.0,85,0.00,,,0.00,VWS V14.01,2013-10-09 13:15:00,
2013-10-09 08:16:00,48.5,43.9,30.26,ESE,112,0.0,0.0,84,0.00,,,0.00,VWS V14.01,2013-10-09 13:16:00,
2013-10-09 08:17:00,48.5,43.9,30.26,ESE,112,0.0,0.0,84,0.00,,,0.00,VWS V14.01,2013-10-09 13:17:00,
2013-10-09 08:18:00,48.5,43.9,30.26,ESE,112,1.1,1.1,84,0.00,,,0.00,VWS V14.01,2013-10-09 13:18:00,
2013-10-09 08:19:00,49.1,44.5,30.26,ESE,112,1.1,1.1,84,0.00,,,0.00,VWS V14.01,2013-10-09 13:19:00,
2013-10-09 08:20:00,49.1,44.5,30.26,ESE,112,0.0,1.1,84,0.00,,,0.00,VWS V14.01,2013-10-09 13:20:00,
2013-10-09 08:21:00,49.6,45.0,30.27,ESE,112,0.0,0.0,84,0.00,,,0.00,VWS V14.01,2013-10-09 13:21:00,
2013-10-09 08:22:00,49.6,45.0,30.27,ESE,112,0.0,0.0,84,0.00,,,0.00,VWS V14.01,2013-10-09 13:22:00,
2013-10-09 08:23:00,50.1,45.2,30.27,ESE,112,0.0,0.0,83,0.00,,,0.00,VWS V14.01,2013-10-09 13:23:00,
2013-10-09 08:24:00,50.1,45.2,30.27,ESE,112,0.0,0.0,83,0.00,,,0.00,VWS V14.01,2013-10-09 13:24:00,
2013-10-09 08:25:00,50.5,45.5,30.27,ESE,112,0.0,0.0,83,0.00,,,0.00,VWS V14.01,2013-10-09 13:25:00,
2013-10-09 08:26:00,50.5,45.5,30.27,ESE,112,0.0,0.0,83,0.00,,,0.00,VWS V14.01,2013-10-09 13:26:00,
2013-10-09 08:27:00,50.9,45.9,30.27,ESE,112,2.0,2.0,83,0.00,,,0.00,VWS V14.01,2013-10-09 13:27:00,
2013-10-09 08:28:00,50.9,45.9,30.26,ESE,112,2.0,2.0,83,0.00,,,0.00,VWS V14.01,2013-10-09 13:28:00,
2013-10-09 08:29:00,51.2,45.9,30.27,ESE,112,1.5,2.0,82,0.00,,,0.00,VWS V14.01,2013-10-09 13:29:00,
2013-10-09 08:30:00,51.2,45.9,30.27,ESE,112,1.5,1.5,82,0.00,,,0.00,VWS V14.01,2013-10-09 13:30:00,
2013-10-09 08:31:00,51.6,46.3,30.26,ESE,112,1.1,1.5,82,0.00,,,0.00,VWS V14.01,2013-10-09 13:31:00,
2013-10-09 08:32:00,51.6,46.3,30.27,ESE,112,1.1,1.1,82,0.00,,,0.00,VWS V14.01,2013-10-09 13:32:00,
2013-10-09 08:33:00,51.8,46.2,30.27,ESE,112,2.4,2.4,81,0.00,,,0.00,VWS V14.01,2013-10-09 13:33:00,
2013-10-09 08:34:00,51.8,46.2,30.27,ESE,112,2.4,2.4,81,0.00,,,0.00,VWS V14.01,2013-10-09 13:34:00,
2013-10-09 08:35:00,51.8,46.2,30.27,ESE,112,2.6,2.6,81,0.00,,,0.00,VWS V14.01,2013-10-09 13:35:00,
2013-10-09 08:36:00,52.1,46.5,30.27,ESE,112,2.6,2.6,81,0.00,,,0.00,VWS V14.01,2013-10-09 13:36:00,
2013-10-09 08:37:00,52.1,46.5,30.27,ESE,112,2.6,2.6,81,0.00,,,0.00,VWS V14.01,2013-10-09 13:37:00,
2013-10-09 08:38:00,52.3,46.7,30.27,ESE,112,4.0,4.0,81,0.00,,,0.00,VWS V14.01,2013-10-09 13:38:00,
2013-10-09 08:39:00,52.3,46.7,30.27,ESE,112,4.0,4.0,81,0.00,,,0.00,VWS V14.01,2013-10-09 13:39:00,
2013-10-09 08:40:00,52.7,46.7,30.27,ESE,112,3.5,4.0,80,0.00,,,0.00,VWS V14.01,2013-10-09 13:40:00,
2013-10-09 08:41:00,52.7,46.7,30.27,ESE,112,3.5,3.5,80,0.00,,,0.00,VWS V14.01,2013-10-09 13:41:00,
2013-10-09 08:42:00,53.2,47.2,30.27,ESE,112,0.0,3.5,80,0.00,,,0.00,VWS V14.01,2013-10-09 13:42:00,
2013-10-09 08:43:00,53.2,47.2,30.27,ESE,112,0.0,0.0,80,0.00,,,0.00,VWS V14.01,2013-10-09 13:43:00,
2013-10-09 08:44:00,53.9,47.5,30.27,ESE,112,0.0,0.0,79,0.00,,,0.00,VWS V14.01,2013-10-09 13:44:00,
2013-10-09 08:45:00,53.9,47.5,30.27,ESE,112,0.0,0.0,79,0.00,,,0.00,VWS V14.01,2013-10-09 13:45:00,
2013-10-09 08:46:00,54.5,48.1,30.27,ESE,112,0.0,0.0,79,0.00,,,0.00,VWS V14.01,2013-10-09 13:46:00,
2013-10-09 08:47:00,54.5,48.1,30.27,ESE,112,0.0,0.0,79,0.00,,,0.00,VWS V14.01,2013-10-09 13:47:00,
2013-10-09 08:58:00,55.2,48.2,30.27,ESE,112,0.0,0.4,77,2.04,,,2.04,VWS V14.01,2013-10-09 13:58:00,
2013-10-09 09:58:00,58.8,49.8,30.28,SSE,158,5.6,5.6,72,0.00,,,2.04,VWS V14.01,2013-10-09 14:58:00,
2013-10-09 10:58:00,64.2,50.9,30.28,SSE,158,0.7,5.6,62,0.00,,,2.04,VWS V14.01,2013-10-09 15:58:00,
2013-10-09 11:58:00,71.2,52.7,30.28,SW,225,1.8,1.8,52,0.00,,,2.04,VWS V14.01,2013-10-09 16:58:00,
2013-10-09 12:58:00,71.2,52.7,30.28,SW,225,1.8,1.8,52,0.00,,,2.04,VWS V14.01,2013-10-09 17:58:00,
2013-10-09 13:20:00,73.0,49.9,30.25,SE,135,2.5,2.5,44,0.00,,,2.04,VWS V14.01,2013-10-09 18:20:00,
2013-10-09 13:25:00,74.1,48.9,30.23,SSW,202,5.1,7.6,41,0.00,,,0.00,VWS V14.01,2013-10-09 18:25:00,
2013-10-09 13:30:00,74.4,47.9,30.23,SW,225,0.4,7.6,39,0.00,,,0.00,VWS V14.01,2013-10-09 18:30:00,
2013-10-09 13:35:00,74.3,47.8,30.23,SSW,202,0.2,7.6,39,0.00,,,0.00,VWS V14.01,2013-10-09 18:35:00,
2013-10-09 13:40:00,73.7,47.9,30.23,SE,135,3.8,7.6,40,0.00,,,0.00,VWS V14.01,2013-10-09 18:40:00,
2013-10-09 13:45:00,73.7,47.2,30.23,SSE,158,6.4,7.6,39,0.00,,,0.00,VWS V14.01,2013-10-09 18:45:00,
2013-10-09 13:50:00,73.9,48.1,30.23,SSW,202,6.2,7.6,40,0.00,,,0.00,VWS V14.01,2013-10-09 18:50:00,
2013-10-09 13:55:00,75.0,48.4,30.23,SSE,158,2.2,7.6,39,0.00,,,0.00,VWS V14.01,2013-10-09 18:55:00,
2013-10-09 14:00:00,74.8,47.5,30.23,SSE,158,2.0,2.0,38,0.00,,,0.00,VWS V14.01,2013-10-09 19:00:00,
2013-10-09 14:05:00,74.6,48.7,30.22,SSE,158,6.4,6.4,40,0.00,,,0.00,VWS V14.01,2013-10-09 19:05:00,
2013-10-09 14:10:00,74.8,46.1,30.22,SE,135,5.5,5.5,36,0.00,,,0.00,VWS V14.01,2013-10-09 19:10:00,
2013-10-09 14:15:00,74.8,47.5,30.21,South,180,10.9,10.9,38,0.00,,,0.00,VWS V14.01,2013-10-09 19:15:00,
2013-10-09 14:20:00,74.8,46.8,30.22,SSE,158,0.0,0.0,37,0.00,,,0.00,VWS V14.01,2013-10-09 19:20:00,
2013-10-09 14:25:00,74.8,47.5,30.21,South,180,4.9,4.9,38,0.00,,,0.00,VWS V14.01,2013-10-09 19:25:00,
2013-10-09 14:30:00,74.4,47.9,30.21,SE,135,3.1,3.1,39,0.00,,,0.00,VWS V14.01,2013-10-09 19:30:00,
2013-10-09 14:35:00,75.0,47.7,30.21,South,180,0.0,0.0,38,0.00,,,0.00,VWS V14.01,2013-10-09 19:35:00,
2013-10-09 14:40:00,75.3,46.5,30.21,ESE,112,2.2,2.2,36,0.00,,,0.00,VWS V14.01,2013-10-09 19:40:00,
2013-10-09 14:44:00,75.7,47.6,30.21,ESE,112,3.3,3.3,37,0.00,,,0.00,VWS V14.01,2013-10-09 19:44:00,
2013-10-09 14:49:00,75.0,46.3,30.21,SSE,158,7.1,7.1,36,0.00,,,0.00,VWS V14.01,2013-10-09 19:49:00,
2013-10-09 14:54:00,75.3,46.5,30.21,SSE,158,2.4,2.4,36,0.00,,,0.00,VWS V14.01,2013-10-09 19:54:00,
2013-10-09 14:58:00,73.0,49.9,30.25,SE,135,2.5,2.5,44,0.00,,,2.04,VWS V14.01,2013-10-09 19:58:00,
2013-10-09 14:59:00,76.1,45.7,30.21,South,180,4.6,4.6,34,0.00,,,0.00,VWS V14.01,2013-10-09 19:59:00,
2013-10-09 15:00:00,74.8,47.5,30.22,SSE,158,2.0,2.0,38,0.00,,,0.00,VWS V14.01,2013-10-09 20:00:00,
2013-10-09 15:01:00,74.6,47.3,30.22,South,180,1.3,2.0,38,0.00,,,0.00,VWS V14.01,2013-10-09 20:01:00,
2013-10-09 15:02:00,74.6,47.3,30.23,South,180,1.3,1.3,38,0.00,,,0.00,VWS V14.01,2013-10-09 20:02:00,
2013-10-09 15:03:00,74.6,47.3,30.22,SSE,158,6.4,6.4,38,0.00,,,0.00,VWS V14.01,2013-10-09 20:03:00,
2013-10-09 15:04:00,76.4,45.2,30.21,SSW,202,2.2,2.2,33,0.00,,,0.00,VWS V14.01,2013-10-09 20:04:00,
2013-10-09 15:05:00,75.0,48.4,30.22,South,180,0.0,6.4,39,0.00,,,0.00,VWS V14.01,2013-10-09 20:05:00,
2013-10-09 15:06:00,75.0,48.4,30.22,South,180,0.0,0.0,39,0.00,,,0.00,VWS V14.01,2013-10-09 20:06:00,
2013-10-09 15:07:00,75.3,48.7,30.22,SSW,202,5.5,5.5,39,0.00,,,0.00,VWS V14.01,2013-10-09 20:07:00,
2013-10-09 15:08:00,75.3,48.7,30.22,SSW,202,5.5,5.5,39,0.00,,,0.00,VWS V14.01,2013-10-09 20:08:00,
2013-10-09 15:09:00,76.2,45.0,30.21,ESE,112,6.9,6.9,33,0.00,,,0.00,VWS V14.01,2013-10-09 20:09:00,
2013-10-09 15:10:00,74.8,46.1,30.22,SE,135,5.5,5.5,36,0.00,,,0.00,VWS V14.01,2013-10-09 20:10:00,
2013-10-09 15:11:00,74.8,46.1,30.22,SE,135,5.5,5.5,36,0.00,,,0.00,VWS V14.01,2013-10-09 20:11:00,
2013-10-09 15:12:00,74.8,46.8,30.22,South,180,0.0,5.5,37,0.00,,,0.00,VWS V14.01,2013-10-09 20:12:00,
2013-10-09 15:13:00,74.8,46.8,30.22,South,180,0.0,0.0,37,0.00,,,0.00,VWS V14.01,2013-10-09 20:13:00,
2013-10-09 15:14:00,75.9,44.8,30.21,SSE,158,5.5,5.5,33,0.00,,,0.00,VWS V14.01,2013-10-09 20:14:00,
2013-10-09 15:15:00,74.8,47.5,30.22,South,180,10.9,10.9,38,0.00,,,0.00,VWS V14.01,2013-10-09 20:15:00,
2013-10-09 15:16:00,75.0,47.7,30.22,SE,135,7.1,10.9,38,0.00,,,0.00,VWS V14.01,2013-10-09 20:16:00,
2013-10-09 15:17:00,75.0,47.7,30.22,SE,135,7.1,7.1,38,0.00,,,0.00,VWS V14.01,2013-10-09 20:17:00,
2013-10-09 15:18:00,74.8,46.8,30.22,SSE,158,0.0,7.1,37,0.00,,,0.00,VWS V14.01,2013-10-09 20:18:00,
2013-10-09 15:19:00,75.7,44.6,30.20,South,180,5.5,5.5,33,0.00,,,0.00,VWS V14.01,2013-10-09 20:19:00,
2013-10-09 15:20:00,74.8,47.5,30.22,South,180,1.3,1.3,38,0.00,,,0.00,VWS V14.01,2013-10-09 20:20:00,
2013-10-09 15:21:00,74.8,47.5,30.22,South,180,1.3,1.3,38,0.00,,,0.00,VWS V14.01,2013-10-09 20:21:00,
2013-10-09 15:22:00,74.8,47.5,30.22,SSW,202,6.2,6.2,38,0.00,,,0.00,VWS V14.01,2013-10-09 20:22:00,
2013-10-09 15:23:00,74.8,47.5,30.22,SSW,202,6.2,6.2,38,0.00,,,0.00,VWS V14.01,2013-10-09 20:23:00,
2013-10-09 15:24:00,75.9,44.8,30.20,SE,135,3.8,3.8,33,0.00,,,0.00,VWS V14.01,2013-10-09 20:24:00,
2013-10-09 15:25:00,74.8,47.5,30.22,South,180,4.9,4.9,38,0.00,,,0.00,VWS V14.01,2013-10-09 20:25:00,
2013-10-09 15:26:00,74.8,47.5,30.21,ESE,112,4.6,4.9,38,0.00,,,0.00,VWS V14.01,2013-10-09 20:26:00,
2013-10-09 15:27:00,74.4,47.2,30.21,ESE,112,4.6,4.6,38,0.00,,,0.00,VWS V14.01,2013-10-09 20:27:00,
2013-10-09 15:28:00,74.4,47.2,30.21,ESE,112,4.6,4.6,38,0.00,,,0.00,VWS V14.01,2013-10-09 20:28:00,
2013-10-09 15:29:00,75.9,44.0,30.20,SW,225,0.4,0.4,32,0.00,,,0.00,VWS V14.01,2013-10-09 20:29:00,
2013-10-09 15:30:00,74.4,47.9,30.21,SE,135,3.1,3.1,39,0.00,,,0.00,VWS V14.01,2013-10-09 20:30:00,
2013-10-09 15:31:00,74.8,47.5,30.21,SSW,202,6.7,6.7,38,0.00,,,0.00,VWS V14.01,2013-10-09 20:31:00,
2013-10-09 15:32:00,74.8,47.5,30.21,SSW,202,6.7,6.7,38,0.00,,,0.00,VWS V14.01,2013-10-09 20:32:00,
2013-10-09 15:33:00,75.0,47.7,30.21,South,180,0.0,6.7,38,0.00,,,0.00,VWS V14.01,2013-10-09 20:33:00,
2013-10-09 15:34:00,76.6,45.4,30.20,SSE,158,0.6,0.6,33,0.00,,,0.00,VWS V14.01,2013-10-09 20:34:00,
2013-10-09 15:35:00,75.7,47.6,30.21,South,180,4.9,4.9,37,0.00,,,0.00,VWS V14.01,2013-10-09 20:35:00,
2013-10-09 15:36:00,75.7,47.6,30.21,South,180,4.9,4.9,37,0.00,,,0.00,VWS V14.01,2013-10-09 20:36:00,
2013-10-09 15:37:00,75.3,46.5,30.21,SSE,158,7.8,7.8,36,0.00,,,0.00,VWS V14.01,2013-10-09 20:37:00,
2013-10-09 15:38:00,75.3,46.5,30.21,SSE,158,7.8,7.8,36,0.00,,,0.00,VWS V14.01,2013-10-09 20:38:00,
2013-10-09 15:39:00,76.1,44.9,30.20,South,180,0.0,0.0,33,0.00,,,0.00,VWS V14.01,2013-10-09 20:39:00,
2013-10-09 15:40:00,75.0,46.3,30.21,ESE,112,2.2,2.2,36,0.00,,,0.00,VWS V14.01,2013-10-09 20:40:00,
2013-10-09 15:41:00,75.0,47.0,30.21,SW,225,2.2,2.2,37,0.00,,,0.00,VWS V14.01,2013-10-09 20:41:00,
2013-10-09 15:42:00,75.3,47.3,30.21,SW,225,2.2,2.2,37,0.00,,,0.00,VWS V14.01,2013-10-09 20:42:00,
2013-10-09 15:43:00,75.3,47.3,30.21,SW,225,2.2,2.2,37,0.00,,,0.00,VWS V14.01,2013-10-09 20:43:00,
2013-10-09 15:44:00,75.9,44.8,30.20,SSW,202,1.7,1.7,33,0.00,,,0.00,VWS V14.01,2013-10-09 20:44:00,
2013-10-09 15:45:00,75.7,47.6,30.21,ESE,112,3.3,3.3,37,0.00,,,0.00,VWS V14.01,2013-10-09 20:45:00,
2013-10-09 15:46:00,75.5,46.7,30.21,East,90,7.8,7.8,36,0.00,,,0.00,VWS V14.01,2013-10-09 20:46:00,
2013-10-09 15:47:00,75.5,46.7,30.21,East,90,7.8,7.8,36,0.00,,,0.00,VWS V14.01,2013-10-09 20:47:00,
2013-10-09 15:48:00,75.0,46.3,30.21,SSE,158,7.1,7.8,36,0.00,,,0.00,VWS V14.01,2013-10-09 20:48:00,
2013-10-09 15:49:00,76.4,45.2,30.20,SSE,158,2.6,2.6,33,0.00,,,0.00,VWS V14.01,2013-10-09 20:49:00,
2013-10-09 15:50:00,75.0,44.8,30.21,SSE,158,7.8,7.8,34,0.00,,,0.00,VWS V14.01,2013-10-09 20:50:00,
2013-10-09 15:51:00,75.0,44.8,30.21,SSE,158,7.8,7.8,34,0.00,,,0.00,VWS V14.01,2013-10-09 20:51:00,
2013-10-09 15:52:00,75.2,44.9,30.21,SE,135,3.1,7.8,34,0.00,,,0.00,VWS V14.01,2013-10-09 20:52:00,
2013-10-09 15:53:00,75.2,44.9,30.21,SE,135,3.1,3.1,34,0.00,,,0.00,VWS V14.01,2013-10-09 20:53:00,
2013-10-09 15:54:00,76.6,45.4,30.20,East,90,3.1,3.1,33,0.00,,,0.00,VWS V14.01,2013-10-09 20:54:00,
2013-10-09 15:55:00,75.3,46.5,30.21,SSE,158,2.4,2.4,36,0.00,,,0.00,VWS V14.01,2013-10-09 20:55:00,
2013-10-09 15:56:00,75.7,45.4,30.21,SE,135,2.4,2.4,34,0.00,,,0.00,VWS V14.01,2013-10-09 20:56:00,
2013-10-09 15:57:00,75.7,45.4,30.21,SE,135,2.4,2.4,34,0.00,,,0.00,VWS V14.01,2013-10-09 20:57:00,
2013-10-09 15:58:00,75.7,45.4,30.21,South,180,4.6,4.6,34,0.00,,,0.00,VWS V14.01,2013-10-09 20:58:00,
2013-10-09 15:59:00,76.1,44.9,30.20,SSE,158,4.4,4.4,33,0.00,,,0.00,VWS V14.01,2013-10-09 20:59:00,
2013-10-09 16:00:00,76.1,45.7,30.21,South,180,4.6,4.6,34,0.00,,,0.00,VWS V14.01,2013-10-09 21:00:00,
2013-10-09 16:01:00,76.1,44.9,30.21,SSE,158,2.0,4.6,33,0.00,,,0.00,VWS V14.01,2013-10-09 21:01:00,
2013-10-09 16:02:00,76.1,44.9,30.21,SSE,158,2.0,2.0,33,0.00,,,0.00,VWS V14.01,2013-10-09 21:02:00,
2013-10-09 16:03:00,76.4,45.2,30.21,SSW,202,2.2,2.2,33,0.00,,,0.00,VWS V14.01,2013-10-09 21:03:00,
2013-10-09 16:04:00,76.1,44.9,30.20,SSE,158,5.1,5.1,33,0.00,,,0.00,VWS V14.01,2013-10-09 21:04:00,
2013-10-09 16:05:00,76.6,45.4,30.21,SSE,158,4.0,4.0,33,0.00,,,0.00,VWS V14.01,2013-10-09 21:05:00,
2013-10-09 16:06:00,76.6,45.4,30.21,SSE,158,4.0,4.0,33,0.00,,,0.00,VWS V14.01,2013-10-09 21:06:00,
2013-10-09 16:07:00,76.6,45.4,30.21,SSE,158,0.0,4.0,33,0.00,,,0.00,VWS V14.01,2013-10-09 21:07:00,
2013-10-09 16:08:00,76.6,45.4,30.21,SSE,158,0.0,0.0,33,0.00,,,0.00,VWS V14.01,2013-10-09 21:08:00,
2013-10-09 16:09:00,75.0,44.8,30.20,ESE,112,6.0,6.0,34,0.00,,,0.00,VWS V14.01,2013-10-09 21:09:00,
2013-10-09 16:10:00,76.2,45.0,30.21,ESE,112,6.9,6.9,33,0.00,,,0.00,VWS V14.01,2013-10-09 21:10:00,
2013-10-09 16:11:00,76.2,45.0,30.21,SW,225,0.0,6.9,33,0.00,,,0.00,VWS V14.01,2013-10-09 21:11:00,
2013-10-09 16:12:00,76.1,44.9,30.21,SW,225,0.0,0.0,33,0.00,,,0.00,VWS V14.01,2013-10-09 21:12:00,
2013-10-09 16:13:00,76.1,44.9,30.21,SSE,158,5.5,5.5,33,0.00,,,0.00,VWS V14.01,2013-10-09 21:13:00,
2013-10-09 16:14:00,73.9,43.0,30.19,SSE,158,6.9,6.9,33,0.00,,,0.00,VWS V14.01,2013-10-09 21:14:00,
2013-10-09 16:15:00,75.9,44.8,30.20,SSE,158,5.5,5.5,33,0.00,,,0.00,VWS V14.01,2013-10-09 21:15:00,
2013-10-09 16:16:00,75.9,44.8,30.20,SE,135,0.8,5.5,33,0.00,,,0.00,VWS V14.01,2013-10-09 21:16:00,
2013-10-09 16:17:00,75.9,44.8,30.20,SE,135,0.8,0.8,33,0.00,,,0.00,VWS V14.01,2013-10-09 21:17:00,
2013-10-09 16:18:00,75.7,44.6,30.20,South,180,5.5,5.5,33,0.00,,,0.00,VWS V14.01,2013-10-09 21:18:00,
2013-10-09 16:19:00,73.7,44.4,30.19,South,180,1.7,1.7,35,0.00,,,0.00,VWS V14.01,2013-10-09 21:19:00,
2013-10-09 16:20:00,75.3,45.0,30.20,SSE,158,2.6,5.5,34,0.00,,,0.00,VWS V14.01,2013-10-09 21:20:00,
2013-10-09 16:21:00,75.3,45.0,30.20,SSE,158,2.6,2.6,34,0.00,,,0.00,VWS V14.01,2013-10-09 21:21:00,
2013-10-09 16:22:00,75.5,45.2,30.20,SSE,158,0.0,2.6,34,0.00,,,0.00,VWS V14.01,2013-10-09 21:22:00,
2013-10-09 16:23:00,75.5,45.2,30.20,SSE,158,0.0,0.0,34,0.00,,,0.00,VWS V14.01,2013-10-09 21:23:00,
2013-10-09 16:24:00,74.1,44.7,30.19,SSE,158,1.1,1.1,35,0.00,,,0.00,VWS V14.01,2013-10-09 21:24:00,
2013-10-09 16:25:00,75.9,44.8,30.20,SE,135,3.8,3.8,33,0.00,,,0.00,VWS V14.01,2013-10-09 21:25:00,
2013-10-09 16:26:00,75.9,44.0,30.20,SE,135,0.6,3.8,32,0.00,,,0.00,VWS V14.01,2013-10-09 21:26:00,
2013-10-09 16:27:00,75.9,44.0,30.20,SE,135,0.6,0.6,32,0.00,,,0.00,VWS V14.01,2013-10-09 21:27:00,
2013-10-09 16:28:00,75.9,44.0,30.20,SW,225,0.4,0.6,32,0.00,,,0.00,VWS V14.01,2013-10-09 21:28:00,
2013-10-09 16:29:00,74.1,44.0,30.19,South,180,3.8,3.8,34,0.00,,,0.00,VWS V14.01,2013-10-09 21:29:00,
2013-10-09 16:30:00,75.9,44.0,30.20,SW,225,0.4,0.4,32,0.00,,,0.00,VWS V14.01,2013-10-09 21:30:00,
2013-10-09 16:31:00,76.2,45.0,30.20,SSE,158,0.6,0.6,33,0.00,,,0.00,VWS V14.01,2013-10-09 21:31:00,
2013-10-09 16:32:00,76.2,45.0,30.20,SSE,158,0.6,0.6,33,0.00,,,0.00,VWS V14.01,2013-10-09 21:32:00,
2013-10-09 16:33:00,76.6,45.4,30.20,SSE,158,0.6,0.6,33,0.00,,,0.00,VWS V14.01,2013-10-09 21:33:00,
2013-10-09 16:34:00,74.1,44.7,30.19,SSE,158,2.2,2.2,35,0.00,,,0.00,VWS V14.01,2013-10-09 21:34:00,
2013-10-09 16:35:00,76.6,45.4,30.20,SSW,202,4.0,4.0,33,0.00,,,0.00,VWS V14.01,2013-10-09 21:35:00,
2013-10-09 16:36:00,76.6,45.4,30.20,SSW,202,4.0,4.0,33,0.00,,,0.00,VWS V14.01,2013-10-09 21:36:00,
2013-10-09 16:37:00,76.4,44.4,30.20,SSE,158,1.1,4.0,32,0.00,,,0.00,VWS V14.01,2013-10-09 21:37:00,
2013-10-09 16:38:00,76.4,44.4,30.20,SSE,158,1.1,1.1,32,0.00,,,0.00,VWS V14.01,2013-10-09 21:38:00,
2013-10-09 16:39:00,73.2,45.4,30.19,SSE,158,0.0,0.0,37,0.00,,,0.00,VWS V14.01,2013-10-09 21:39:00,
2013-10-09 16:40:00,76.1,44.9,30.20,South,180,0.0,0.0,33,0.00,,,0.00,VWS V14.01,2013-10-09 21:40:00,
2013-10-09 16:41:00,75.9,44.8,30.20,SE,135,6.0,6.0,33,0.00,,,0.00,VWS V14.01,2013-10-09 21:41:00,
2013-10-09 16:42:00,75.9,44.8,30.20,SE,135,6.0,6.0,33,0.00,,,0.00,VWS V14.01,2013-10-09 21:42:00,
2013-10-09 16:43:00,75.9,44.8,30.20,SSW,202,1.7,6.0,33,0.00,,,0.00,VWS V14.01,2013-10-09 21:43:00,
2013-10-09 16:44:00,73.0,43.0,30.19,South,180,2.9,2.9,34,0.00,,,0.00,VWS V14.01,2013-10-09 21:44:00,
2013-10-09 16:45:00,75.9,44.8,30.20,SSW,202,1.7,1.7,33,0.00,,,0.00,VWS V14.01,2013-10-09 21:45:00,
2013-10-09 16:46:00,75.9,44.8,30.20,SSW,202,0.0,1.7,33,0.00,,,0.00,VWS V14.01,2013-10-09 21:46:00,
2013-10-09 16:47:00,75.9,44.8,30.20,SSW,202,0.0,0.0,33,0.00,,,0.00,VWS V14.01,2013-10-09 21:47:00,
2013-10-09 16:48:00,76.4,45.2,30.20,SSE,158,2.6,2.6,33,0.00,,,0.00,VWS V14.01,2013-10-09 21:48:00,
2013-10-09 16:49:00,73.2,43.9,30.19,SSE,158,3.5,3.5,35,0.00,,,0.00,VWS V14.01,2013-10-09 21:49:00,
2013-10-09 16:50:00,76.8,45.5,30.20,South,180,5.3,5.3,33,0.00,,,0.00,VWS V14.01,2013-10-09 21:50:00,
2013-10-09 16:51:00,76.8,45.5,30.20,South,180,5.3,5.3,33,0.00,,,0.00,VWS V14.01,2013-10-09 21:51:00,
2013-10-09 16:52:00,76.8,45.5,30.20,SSE,158,0.4,5.3,33,0.00,,,0.00,VWS V14.01,2013-10-09 21:52:00,
2013-10-09 16:53:00,76.8,45.5,30.20,SSE,158,0.4,0.4,33,0.00,,,0.00,VWS V14.01,2013-10-09 21:53:00,
2013-10-09 16:54:00,72.6,43.4,30.19,South,180,4.9,4.9,35,0.00,,,0.00,VWS V14.01,2013-10-09 21:54:00,
2013-10-09 16:55:00,76.6,45.4,30.20,East,90,3.1,3.1,33,0.00,,,0.00,VWS V14.01,2013-10-09 21:55:00,
2013-10-09 16:56:00,76.2,45.0,30.20,SSE,158,2.6,3.1,33,0.00,,,0.00,VWS V14.01,2013-10-09 21:56:00,
2013-10-09 16:57:00,76.2,45.0,30.20,SSE,158,2.6,2.6,33,0.00,,,0.00,VWS V14.01,2013-10-09 21:57:00,
2013-10-09 16:58:00,76.1,44.9,30.20,SSE,158,4.4,4.4,33,0.00,,,0.00,VWS V14.01,2013-10-09 21:58:00,
2013-10-09 16:59:00,72.3,43.1,30.18,ESE,112,5.3,5.3,35,0.00,,,0.00,VWS V14.01,2013-10-09 21:59:00,
2013-10-09 17:00:00,76.1,44.9,30.20,SSE,158,4.4,4.4,33,0.00,,,0.00,VWS V14.01,2013-10-09 22:00:00,
2013-10-09 17:01:00,76.1,44.9,30.20,WNW,292,0.0,4.4,33,0.00,,,0.00,VWS V14.01,2013-10-09 22:01:00,
2013-10-09 17:02:00,76.1,44.9,30.20,WNW,292,0.0,0.0,33,0.00,,,0.00,VWS V14.01,2013-10-09 22:02:00,
2013-10-09 17:03:00,76.1,44.9,30.20,SSE,158,5.1,5.1,33,0.00,,,0.00,VWS V14.01,2013-10-09 22:03:00,
2013-10-09 17:04:00,72.1,43.7,30.18,ESE,112,1.3,1.3,36,0.00,,,0.00,VWS V14.01,2013-10-09 22:04:00,
2013-10-09 17:05:00,75.7,44.6,30.20,SSE,158,4.4,5.1,33,0.00,,,0.00,VWS V14.01,2013-10-09 22:05:00,
2013-10-09 17:06:00,75.7,44.6,30.19,SSE,158,4.4,4.4,33,0.00,,,0.00,VWS V14.01,2013-10-09 22:06:00,
2013-10-09 17:07:00,75.5,45.2,30.19,ESE,112,3.3,4.4,34,0.00,,,0.00,VWS V14.01,2013-10-09 22:07:00,
2013-10-09 17:08:00,75.5,45.2,30.20,ESE,112,3.3,3.3,34,0.00,,,0.00,VWS V14.01,2013-10-09 22:08:00,
2013-10-09 17:09:00,72.3,44.6,30.18,SE,135,2.4,2.4,37,0.00,,,0.00,VWS V14.01,2013-10-09 22:09:00,
2013-10-09 17:10:00,75.0,44.8,30.19,ESE,112,6.0,6.0,34,0.00,,,0.00,VWS V14.01,2013-10-09 22:10:00,
2013-10-09 17:11:00,74.6,44.4,30.20,SSE,158,11.6,11.6,34,0.00,,,0.00,VWS V14.01,2013-10-09 22:11:00,
2013-10-09 17:12:00,74.6,44.4,30.19,SSE,158,11.6,11.6,34,0.00,,,0.00,VWS V14.01,2013-10-09 22:12:00,
2013-10-09 17:13:00,73.9,43.0,30.19,SSE,158,6.9,11.6,33,0.00,,,0.00,VWS V14.01,2013-10-09 22:13:00,
2013-10-09 17:14:00,72.1,44.4,30.18,SSE,158,4.0,4.0,37,0.00,,,0.00,VWS V14.01,2013-10-09 22:14:00,
2013-10-09 17:15:00,73.9,43.0,30.19,SSE,158,6.9,6.9,33,0.00,,,0.00,VWS V14.01,2013-10-09 22:15:00,
2013-10-09 17:16:00,73.7,44.4,30.19,East,90,6.7,6.9,35,0.00,,,0.00,VWS V14.01,2013-10-09 22:16:00,
2013-10-09 17:17:00,73.7,44.4,30.19,East,90,6.7,6.7,35,0.00,,,0.00,VWS V14.01,2013-10-09 22:17:00,
2013-10-09 17:18:00,73.7,44.4,30.19,South,180,1.7,6.7,35,0.00,,,0.00,VWS V14.01,2013-10-09 22:18:00,
2013-10-09 17:19:00,71.4,43.8,30.19,SSE,158,3.5,3.5,37,0.00,,,0.00,VWS V14.01,2013-10-09 22:19:00,
2013-10-09 17:20:00,73.9,44.5,30.19,SSE,158,2.9,2.9,35,0.00,,,0.00,VWS V14.01,2013-10-09 22:20:00,
2013-10-09 17:21:00,73.9,44.5,30.19,SSE,158,2.9,2.9,35,0.00,,,0.00,VWS V14.01,2013-10-09 22:21:00,
2013-10-09 17:22:00,74.1,44.7,30.19,South,180,6.4,6.4,35,0.00,,,0.00,VWS V14.01,2013-10-09 22:22:00,
2013-10-09 17:23:00,74.1,44.7,30.19,South,180,6.4,6.4,35,0.00,,,0.00,VWS V14.01,2013-10-09 22:23:00,
2013-10-09 17:24:00,71.2,44.3,30.19,SE,135,0.0,0.0,38,0.00,,,0.00,VWS V14.01,2013-10-09 22:24:00,
2013-10-09 17:25:00,74.1,44.7,30.19,SSE,158,1.1,1.1,35,0.00,,,0.00,VWS V14.01,2013-10-09 22:25:00,
2013-10-09 17:26:00,74.4,45.0,30.19,SSE,158,5.1,5.1,35,0.00,,,0.00,VWS V14.01,2013-10-09 22:26:00,
2013-10-09 17:27:00,74.4,45.0,30.20,SSE,158,5.1,5.1,35,0.00,,,0.00,VWS V14.01,2013-10-09 22:27:00,
2013-10-09 17:28:00,74.1,44.7,30.19,South,180,3.8,5.1,35,0.00,,,0.00,VWS V14.01,2013-10-09 22:28:00,
2013-10-09 17:29:00,70.8,44.6,30.18,SSE,158,0.0,0.0,39,0.00,,,0.00,VWS V14.01,2013-10-09 22:29:00,
2013-10-09 17:30:00,74.1,44.0,30.19,SSE,158,6.0,6.0,34,0.00,,,0.00,VWS V14.01,2013-10-09 22:30:00,
2013-10-09 17:31:00,74.1,44.0,30.19,SSE,158,6.0,6.0,34,0.00,,,0.00,VWS V14.01,2013-10-09 22:31:00,
2013-10-09 17:32:00,74.1,44.0,30.19,SSE,158,6.0,6.0,34,0.00,,,0.00,VWS V14.01,2013-10-09 22:32:00,
2013-10-09 17:33:00,74.1,44.7,30.19,SSE,158,2.2,6.0,35,0.00,,,0.00,VWS V14.01,2013-10-09 22:33:00,
2013-10-09 17:34:00,70.3,44.2,30.18,SE,135,0.2,0.2,39,0.00,,,0.00,VWS V14.01,2013-10-09 22:34:00,
2013-10-09 17:35:00,73.7,43.6,30.19,SE,135,1.3,2.2,34,0.00,,,0.00,VWS V14.01,2013-10-09 22:35:00,
2013-10-09 17:36:00,73.7,43.6,30.20,SE,135,1.3,1.3,34,0.00,,,0.00,VWS V14.01,2013-10-09 22:36:00,
2013-10-09 17:37:00,73.4,44.1,30.19,SE,135,6.2,6.2,35,0.00,,,0.00,VWS V14.01,2013-10-09 22:37:00,
2013-10-09 17:38:00,73.4,44.1,30.20,SE,135,6.2,6.2,35,0.00,,,0.00,VWS V14.01,2013-10-09 22:38:00,
2013-10-09 17:39:00,70.1,44.7,30.18,South,180,0.0,0.0,40,0.00,,,0.00,VWS V14.01,2013-10-09 22:39:00,
2013-10-09 17:40:00,73.2,45.4,30.19,SSE,158,0.0,0.0,37,0.00,,,0.00,VWS V14.01,2013-10-09 22:40:00,
2013-10-09 17:41:00,73.2,43.9,30.19,South,180,3.5,3.5,35,0.00,,,0.00,VWS V14.01,2013-10-09 22:41:00,
2013-10-09 17:42:00,73.2,43.9,30.19,South,180,3.5,3.5,35,0.00,,,0.00,VWS V14.01,2013-10-09 22:42:00,
2013-10-09 17:43:00,73.0,43.0,30.19,South,180,2.9,3.5,34,0.00,,,0.00,VWS V14.01,2013-10-09 22:43:00,
2013-10-09 17:44:00,70.1,44.7,30.18,SSE,158,0.0,0.0,40,0.00,,,0.00,VWS V14.01,2013-10-09 22:44:00,
2013-10-09 17:45:00,73.0,43.0,30.19,SE,135,0.0,2.9,34,0.00,,,0.00,VWS V14.01,2013-10-09 22:45:00,
2013-10-09 17:46:00,73.0,43.8,30.19,SE,135,0.0,0.0,35,0.00,,,0.00,VWS V14.01,2013-10-09 22:46:00,
2013-10-09 17:47:00,73.0,43.8,30.19,SE,135,0.0,0.0,35,0.00,,,0.00,VWS V14.01,2013-10-09 22:47:00,
2013-10-09 17:48:00,73.2,43.9,30.19,SSE,158,3.5,3.5,35,0.00,,,0.00,VWS V14.01,2013-10-09 22:48:00,
2013-10-09 17:49:00,69.9,44.5,30.19,South,180,0.0,0.0,40,0.00,,,0.00,VWS V14.01,2013-10-09 22:49:00,
2013-10-09 17:50:00,73.2,43.9,30.19,SSE,158,4.6,4.6,35,0.00,,,0.00,VWS V14.01,2013-10-09 22:50:00,
2013-10-09 17:51:00,73.2,43.9,30.19,SSE,158,4.6,4.6,35,0.00,,,0.00,VWS V14.01,2013-10-09 22:51:00,
2013-10-09 17:52:00,72.8,43.6,30.19,ESE,112,3.1,4.6,35,0.00,,,0.00,VWS V14.01,2013-10-09 22:52:00,
2013-10-09 17:53:00,72.8,43.6,30.19,ESE,112,3.1,3.1,35,0.00,,,0.00,VWS V14.01,2013-10-09 22:53:00,
2013-10-09 17:54:00,70.1,44.7,30.19,South,180,0.0,0.0,40,0.00,,,0.00,VWS V14.01,2013-10-09 22:54:00,
2013-10-09 17:55:00,72.6,43.4,30.19,South,180,4.9,4.9,35,0.00,,,0.00,VWS V14.01,2013-10-09 22:55:00,
2013-10-09 17:56:00,72.5,43.3,30.18,ESE,112,4.9,4.9,35,0.00,,,0.00,VWS V14.01,2013-10-09 22:56:00,
2013-10-09 17:57:00,72.5,43.3,30.19,ESE,112,4.9,4.9,35,0.00,,,0.00,VWS V14.01,2013-10-09 22:57:00,
2013-10-09 17:58:00,72.3,43.1,30.18,ESE,112,5.3,5.3,35,0.00,,,0.00,VWS V14.01,2013-10-09 22:58:00,
2013-10-09 17:59:00,69.6,44.9,30.19,ESE,112,2.4,2.4,41,0.00,,,0.00,VWS V14.01,2013-10-09 22:59:00,
2013-10-09 18:00:00,72.1,43.0,30.18,South,180,0.0,5.3,35,0.00,,,0.00,VWS V14.01,2013-10-09 23:00:00,
2013-10-09 18:01:00,72.1,43.7,30.18,South,180,0.0,0.0,36,0.00,,,0.00,VWS V14.01,2013-10-09 23:01:00,
2013-10-09 18:02:00,72.1,43.7,30.18,ESE,112,1.3,1.3,36,0.00,,,0.00,VWS V14.01,2013-10-09 23:02:00,
2013-10-09 18:03:00,72.1,43.7,30.18,ESE,112,1.3,1.3,36,0.00,,,0.00,VWS V14.01,2013-10-09 23:03:00,
2013-10-09 18:04:00,69.2,44.5,30.19,SE,135,0.8,0.8,41,0.00,,,0.00,VWS V14.01,2013-10-09 23:04:00,
2013-10-09 18:05:00,72.1,43.7,30.18,SSE,158,2.9,2.9,36,0.00,,,0.00,VWS V14.01,2013-10-09 23:05:00,
2013-10-09 18:06:00,72.1,43.7,30.18,SSE,158,2.9,2.9,36,0.00,,,0.00,VWS V14.01,2013-10-09 23:06:00,
2013-10-09 18:07:00,72.1,43.7,30.18,SE,135,0.0,2.9,36,0.00,,,0.00,VWS V14.01,2013-10-09 23:07:00,
2013-10-09 18:08:00,72.1,43.7,30.18,SE,135,0.0,0.0,36,0.00,,,0.00,VWS V14.01,2013-10-09 23:08:00,
2013-10-09 18:09:00,68.9,44.9,30.18,SE,135,0.0,0.0,42,0.00,,,0.00,VWS V14.01,2013-10-09 23:09:00,
2013-10-09 18:10:00,72.3,44.6,30.18,SE,135,2.4,2.4,37,0.00,,,0.00,VWS V14.01,2013-10-09 23:10:00,
2013-10-09 18:11:00,72.1,44.4,30.18,South,180,4.2,4.2,37,0.00,,,0.00,VWS V14.01,2013-10-09 23:11:00,
2013-10-09 18:12:00,72.1,44.4,30.18,South,180,4.2,4.2,37,0.00,,,0.00,VWS V14.01,2013-10-09 23:12:00,
2013-10-09 18:13:00,72.1,44.4,30.18,SSE,158,4.0,4.2,37,0.00,,,0.00,VWS V14.01,2013-10-09 23:13:00,
2013-10-09 18:14:00,68.5,44.5,30.18,SE,135,0.0,0.0,42,0.00,,,0.00,VWS V14.01,2013-10-09 23:14:00,
2013-10-09 18:15:00,71.7,44.1,30.18,SE,135,1.3,4.0,37,0.00,,,0.00,VWS V14.01,2013-10-09 23:15:00,
2013-10-09 18:16:00,71.7,44.1,30.18,SE,135,1.3,1.3,37,0.00,,,0.00,VWS V14.01,2013-10-09 23:16:00,
2013-10-09 18:17:00,71.7,44.1,30.18,SSE,158,3.5,3.5,37,0.00,,,0.00,VWS V14.01,2013-10-09 23:17:00,
2013-10-09 18:18:00,71.4,43.8,30.18,SSE,158,3.5,3.5,37,0.00,,,0.00,VWS V14.01,2013-10-09 23:18:00,
2013-10-09 18:19:00,67.8,44.5,30.18,SE,135,0.6,0.6,43,0.00,,,0.00,VWS V14.01,2013-10-09 23:19:00,
2013-10-09 18:20:00,71.4,44.5,30.19,SE,135,2.2,3.5,38,0.00,,,0.00,VWS V14.01,2013-10-09 23:20:00,
2013-10-09 18:21:00,71.4,44.5,30.19,SE,135,2.2,2.2,38,0.00,,,0.00,VWS V14.01,2013-10-09 23:21:00,
2013-10-09 18:22:00,71.2,44.3,30.19,SE,135,5.3,5.3,38,0.00,,,0.00,VWS V14.01,2013-10-09 23:22:00,
2013-10-09 18:23:00,71.2,44.3,30.19,SE,135,5.3,5.3,38,0.00,,,0.00,VWS V14.01,2013-10-09 23:23:00,
2013-10-09 18:24:00,67.1,44.5,30.18,SE,135,2.0,2.0,44,0.00,,,0.00,VWS V14.01,2013-10-09 23:24:00,
2013-10-09 18:25:00,71.2,44.3,30.18,SE,135,0.0,0.0,38,0.00,,,0.00,VWS V14.01,2013-10-09 23:25:00,
2013-10-09 18:26:00,70.8,44.0,30.18,SSE,158,0.6,0.6,38,0.00,,,0.00,VWS V14.01,2013-10-09 23:26:00,
2013-10-09 18:27:00,70.8,44.0,30.18,SSE,158,0.6,0.6,38,0.00,,,0.00,VWS V14.01,2013-10-09 23:27:00,
2013-10-09 18:28:00,70.8,44.6,30.18,SSE,158,0.0,0.6,39,0.00,,,0.00,VWS V14.01,2013-10-09 23:28:00,
2013-10-09 18:29:00,66.3,44.3,30.18,SSE,158,0.0,0.0,45,0.00,,,0.00,VWS V14.01,2013-10-09 23:29:00,
2013-10-09 18:30:00,70.5,44.4,30.19,South,180,0.0,0.0,39,0.00,,,0.00,VWS V14.01,2013-10-09 23:30:00,
2013-10-09 18:31:00,70.5,44.4,30.18,South,180,0.0,0.0,39,0.00,,,0.00,VWS V14.01,2013-10-09 23:31:00,
2013-10-09 18:32:00,70.5,44.4,30.18,SE,135,0.2,0.2,39,0.00,,,0.00,VWS V14.01,2013-10-09 23:32:00,
2013-10-09 18:33:00,70.3,44.2,30.19,SE,135,0.2,0.2,39,0.00,,,0.00,VWS V14.01,2013-10-09 23:33:00,
2013-10-09 18:34:00,65.3,44.6,30.18,ESE,112,3.8,3.8,47,0.00,,,0.00,VWS V14.01,2013-10-09 23:34:00,
2013-10-09 18:35:00,70.1,44.0,30.18,SSE,158,0.4,0.4,39,0.00,,,0.00,VWS V14.01,2013-10-09 23:35:00,
2013-10-09 18:36:00,70.1,44.0,30.18,SSE,158,0.4,0.4,39,0.00,,,0.00,VWS V14.01,2013-10-09 23:36:00,
2013-10-09 18:37:00,70.1,44.7,30.18,SSE,158,0.0,0.4,40,0.00,,,0.00,VWS V14.01,2013-10-09 23:37:00,
2013-10-09 18:38:00,70.1,44.7,30.18,SSE,158,0.0,0.0,40,0.00,,,0.00,VWS V14.01,2013-10-09 23:38:00,
2013-10-09 18:39:00,64.2,44.1,30.18,East,90,0.0,0.0,48,0.00,,,0.00,VWS V14.01,2013-10-09 23:39:00,
2013-10-09 18:40:00,70.1,44.7,30.18,South,180,0.0,0.0,40,0.00,,,0.00,VWS V14.01,2013-10-09 23:40:00,
2013-10-09 18:41:00,70.1,44.7,30.18,SSE,158,0.0,0.0,40,0.00,,,0.00,VWS V14.01,2013-10-09 23:41:00,
2013-10-09 18:42:00,70.1,44.7,30.18,SSE,158,0.0,0.0,40,0.00,,,0.00,VWS V14.01,2013-10-09 23:42:00,
2013-10-09 18:43:00,70.1,44.7,30.18,SSE,158,0.0,0.0,40,0.00,,,0.00,VWS V14.01,2013-10-09 23:43:00,
2013-10-09 18:44:00,63.8,44.3,30.18,SE,135,0.0,0.0,49,0.00,,,0.00,VWS V14.01,2013-10-09 23:44:00,
2013-10-09 18:45:00,69.9,44.5,30.18,South,180,0.0,0.0,40,0.00,,,0.00,VWS V14.01,2013-10-09 23:45:00,
2013-10-09 18:46:00,69.9,44.5,30.19,South,180,0.0,0.0,40,0.00,,,0.00,VWS V14.01,2013-10-09 23:46:00,
2013-10-09 18:47:00,69.9,44.5,30.18,South,180,0.0,0.0,40,0.00,,,0.00,VWS V14.01,2013-10-09 23:47:00,
2013-10-09 18:48:00,69.9,44.5,30.19,South,180,0.0,0.0,40,0.00,,,0.00,VWS V14.01,2013-10-09 23:48:00,
2013-10-09 18:49:00,63.6,44.1,30.18,SE,135,3.3,3.3,49,0.00,,,0.00,VWS V14.01,2013-10-09 23:49:00,
2013-10-09 18:50:00,69.9,44.5,30.18,South,180,0.0,0.0,40,0.00,,,0.00,VWS V14.01,2013-10-09 23:50:00,
2013-10-09 18:51:00,69.9,44.5,30.19,South,180,0.0,0.0,40,0.00,,,0.00,VWS V14.01,2013-10-09 23:51:00,
2013-10-09 18:52:00,70.1,44.7,30.19,South,180,0.0,0.0,40,0.00,,,0.00,VWS V14.01,2013-10-09 23:52:00,
2013-10-09 18:53:00,70.1,44.7,30.18,South,180,0.0,0.0,40,0.00,,,0.00,VWS V14.01,2013-10-09 23:53:00,
2013-10-09 18:54:00,63.5,44.5,30.18,ESE,112,1.5,1.5,50,0.00,,,0.00,VWS V14.01,2013-10-09 23:54:00,
2013-10-09 18:55:00,70.1,44.7,30.18,South,180,0.0,0.0,40,0.00,,,0.00,VWS V14.01,2013-10-09 23:55:00,
2013-10-09 18:56:00,69.9,44.5,30.18,ESE,112,1.7,1.7,40,0.00,,,0.00,VWS V14.01,2013-10-09 23:56:00,
2013-10-09 18:57:00,69.9,44.5,30.18,ESE,112,1.7,1.7,40,0.00,,,0.00,VWS V14.01,2013-10-09 23:57:00,
2013-10-09 18:58:00,69.6,44.9,30.18,ESE,112,2.4,2.4,41,0.00,,,0.00,VWS V14.01,2013-10-09 23:58:00,
2013-10-09 18:59:00,62.9,44.5,30.18,SE,135,1.7,1.7,51,0.00,,,0.00,VWS V14.01,2013-10-09 23:59:00,
2013-10-09 19:00:00,69.4,44.7,30.19,SE,135,3.8,3.8,41,0.00,,,0.00,VWS V14.01,2013-10-10 00:00:00,
2013-10-09 19:01:00,69.4,44.7,30.19,SE,135,3.8,3.8,41,0.00,,,0.00,VWS V14.01,2013-10-10 00:01:00,
2013-10-09 19:02:00,69.4,44.7,30.19,SE,135,0.8,3.8,41,0.00,,,0.00,VWS V14.01,2013-10-10 00:02:00,
2013-10-09 19:03:00,69.2,44.5,30.19,SE,135,0.8,0.8,41,0.00,,,0.00,VWS V14.01,2013-10-10 00:03:00,
2013-10-09 19:04:00,62.7,44.3,30.18,SSE,158,0.0,0.0,51,0.00,,,0.00,VWS V14.01,2013-10-10 00:04:00,
2013-10-09 19:05:00,69.0,44.3,30.19,SE,135,0.0,0.8,41,0.00,,,0.00,VWS V14.01,2013-10-10 00:05:00,
2013-10-09 19:06:00,69.0,44.3,30.19,SE,135,0.0,0.0,41,0.00,,,0.00,VWS V14.01,2013-10-10 00:06:00,
2013-10-09 19:07:00,69.0,44.3,30.19,SE,135,0.0,0.0,41,0.00,,,0.00,VWS V14.01,2013-10-10 00:07:00,
2013-10-09 19:08:00,69.0,44.3,30.18,SE,135,0.0,0.0,41,0.00,,,0.00,VWS V14.01,2013-10-10 00:08:00,
2013-10-09 19:09:00,62.4,44.0,30.18,SE,135,0.0,0.0,51,0.00,,,0.00,VWS V14.01,2013-10-10 00:09:00,
2013-10-09 19:10:00,68.9,44.9,30.18,SE,135,0.0,0.0,42,0.00,,,0.00,VWS V14.01,2013-10-10 00:10:00,
2013-10-09 19:11:00,68.7,44.7,30.18,SE,135,0.0,0.0,42,0.00,,,0.00,VWS V14.01,2013-10-10 00:11:00,
2013-10-09 19:12:00,68.7,44.7,30.19,SE,135,0.0,0.0,42,0.00,,,0.00,VWS V14.01,2013-10-10 00:12:00,
2013-10-09 19:13:00,68.5,44.5,30.18,SE,135,0.0,0.0,42,0.00,,,0.00,VWS V14.01,2013-10-10 00:13:00,
2013-10-09 19:14:00,62.0,43.7,30.18,SE,135,1.1,1.1,51,0.00,,,0.00,VWS V14.01,2013-10-10 00:14:00,
2013-10-09 19:15:00,68.5,45.2,30.18,SE,135,0.0,0.0,43,0.00,,,0.00,VWS V14.01,2013-10-10 00:15:00,
2013-10-09 19:16:00,68.1,44.8,30.19,SE,135,0.0,0.0,43,0.00,,,0.00,VWS V14.01,2013-10-10 00:16:00,
2013-10-09 19:17:00,68.1,44.8,30.18,SE,135,0.6,0.6,43,0.00,,,0.00,VWS V14.01,2013-10-10 00:17:00,
2013-10-09 19:18:00,67.8,44.5,30.18,SE,135,0.6,0.6,43,0.00,,,0.00,VWS V14.01,2013-10-10 00:18:00,
2013-10-09 19:19:00,61.5,44.2,30.18,ESE,112,1.7,1.7,53,0.00,,,0.00,VWS V14.01,2013-10-10 00:19:00,
2013-10-09 19:20:00,67.4,44.8,30.18,SE,135,4.9,4.9,44,0.00,,,0.00,VWS V14.01,2013-10-10 00:20:00,
2013-10-09 19:21:00,67.4,44.8,30.18,SE,135,4.9,4.9,44,0.00,,,0.00,VWS V14.01,2013-10-10 00:21:00,
2013-10-09 19:22:00,67.2,44.6,30.18,ESE,112,2.2,4.9,44,0.00,,,0.00,VWS V14.01,2013-10-10 00:22:00,
2013-10-09 19:23:00,67.2,44.6,30.18,ESE,112,2.2,2.2,44,0.00,,,0.00,VWS V14.01,2013-10-10 00:23:00,
2013-10-09 19:24:00,61.1,43.9,30.18,ESE,112,0.0,0.0,53,0.00,,,0.00,VWS V14.01,2013-10-10 00:24:00,
2013-10-09 19:25:00,67.1,44.5,30.18,SE,135,2.0,2.0,44,0.00,,,0.00,VWS V14.01,2013-10-10 00:25:00,
2013-10-09 19:26:00,66.7,44.7,30.18,SE,135,3.1,3.1,45,0.00,,,0.00,VWS V14.01,2013-10-10 00:26:00,
2013-10-09 19:27:00,66.7,44.7,30.18,SE,135,3.1,3.1,45,0.00,,,0.00,VWS V14.01,2013-10-10 00:27:00,
2013-10-09 19:28:00,66.3,44.3,30.18,SSE,158,0.0,3.1,45,0.00,,,0.00,VWS V14.01,2013-10-10 00:28:00,
2013-10-09 19:29:00,60.0,43.8,30.18,ESE,112,0.0,0.0,55,0.00,,,0.00,VWS V14.01,2013-10-10 00:29:00,
2013-10-09 19:30:00,65.8,45.0,30.18,East,90,3.3,3.3,47,0.00,,,0.00,VWS V14.01,2013-10-10 00:30:00,
2013-10-09 19:31:00,65.8,45.0,30.18,East,90,3.3,3.3,47,0.00,,,0.00,VWS V14.01,2013-10-10 00:31:00,
2013-10-09 19:32:00,65.3,44.6,30.18,ESE,112,3.8,3.8,47,0.00,,,0.00,VWS V14.01,2013-10-10 00:32:00,
2013-10-09 19:33:00,65.3,44.6,30.18,ESE,112,3.8,3.8,47,0.00,,,0.00,VWS V14.01,2013-10-10 00:33:00,
2013-10-09 19:34:00,60.0,44.3,30.18,ESE,112,2.2,2.2,56,0.00,,,0.00,VWS V14.01,2013-10-10 00:34:00,
2013-10-09 19:35:00,64.9,44.2,30.18,ESE,112,2.0,3.8,47,0.00,,,0.00,VWS V14.01,2013-10-10 00:35:00,
2013-10-09 19:36:00,64.9,44.2,30.18,ESE,112,2.0,2.0,47,0.00,,,0.00,VWS V14.01,2013-10-10 00:36:00,
2013-10-09 19:37:00,64.5,43.8,30.18,East,90,1.3,2.0,47,0.00,,,0.00,VWS V14.01,2013-10-10 00:37:00,
2013-10-09 19:38:00,64.5,43.8,30.18,East,90,1.3,1.3,47,0.00,,,0.00,VWS V14.01,2013-10-10 00:38:00,
2013-10-09 19:39:00,60.0,44.7,30.18,ESE,112,4.2,4.2,57,0.00,,,0.00,VWS V14.01,2013-10-10 00:39:00,
2013-10-09 19:40:00,64.2,44.1,30.18,East,90,0.0,0.0,48,0.00,,,0.00,VWS V14.01,2013-10-10 00:40:00,
2013-10-09 19:41:00,64.2,44.1,30.18,ESE,112,0.8,0.8,48,0.00,,,0.00,VWS V14.01,2013-10-10 00:41:00,
2013-10-09 19:42:00,64.2,44.1,30.18,ESE,112,0.8,0.8,48,0.00,,,0.00,VWS V14.01,2013-10-10 00:42:00,
2013-10-09 19:43:00,63.8,44.3,30.18,SE,135,0.0,0.8,49,0.00,,,0.00,VWS V14.01,2013-10-10 00:43:00,
2013-10-09 19:44:00,59.5,44.7,30.19,ESE,112,2.9,2.9,58,0.00,,,0.00,VWS V14.01,2013-10-10 00:44:00,
2013-10-09 19:45:00,63.6,44.1,30.18,SE,135,0.0,0.0,49,0.00,,,0.00,VWS V14.01,2013-10-10 00:45:00,
2013-10-09 19:46:00,63.6,44.1,30.19,SE,135,0.0,0.0,49,0.00,,,0.00,VWS V14.01,2013-10-10 00:46:00,
2013-10-09 19:47:00,63.6,44.1,30.19,SE,135,3.3,3.3,49,0.00,,,0.00,VWS V14.01,2013-10-10 00:47:00,
2013-10-09 19:48:00,63.6,44.1,30.18,SE,135,3.3,3.3,49,0.00,,,0.00,VWS V14.01,2013-10-10 00:48:00,
2013-10-09 19:49:00,59.3,44.5,30.19,ESE,112,1.7,1.7,58,0.00,,,0.00,VWS V14.01,2013-10-10 00:49:00,
2013-10-09 19:50:00,64.0,44.5,30.18,SE,135,1.5,3.3,49,0.00,,,0.00,VWS V14.01,2013-10-10 00:50:00,
2013-10-09 19:51:00,64.0,44.5,30.18,SE,135,1.5,1.5,49,0.00,,,0.00,VWS V14.01,2013-10-10 00:51:00,
2013-10-09 19:52:00,63.6,44.1,30.18,SE,135,3.8,3.8,49,0.00,,,0.00,VWS V14.01,2013-10-10 00:52:00,
2013-10-09 19:53:00,63.6,44.1,30.18,SE,135,3.8,3.8,49,0.00,,,0.00,VWS V14.01,2013-10-10 00:53:00,
2013-10-09 19:54:00,58.8,44.1,30.19,ESE,112,0.0,0.0,58,0.00,,,0.00,VWS V14.01,2013-10-10 00:54:00,
2013-10-09 19:55:00,63.5,44.5,30.18,ESE,112,1.5,1.5,50,0.00,,,0.00,VWS V14.01,2013-10-10 00:55:00,
2013-10-09 19:56:00,63.1,44.7,30.18,ESE,112,1.3,1.5,51,0.00,,,0.00,VWS V14.01,2013-10-10 00:56:00,
2013-10-09 19:57:00,63.1,44.7,30.18,ESE,112,1.3,1.3,51,0.00,,,0.00,VWS V14.01,2013-10-10 00:57:00,
2013-10-09 19:58:00,62.9,44.5,30.18,SE,135,1.7,1.7,51,0.00,,,0.00,VWS V14.01,2013-10-10 00:58:00,
2013-10-09 19:59:00,57.7,43.9,30.19,ESE,112,0.0,0.0,60,0.00,,,0.00,VWS V14.01,2013-10-10 00:59:00,
2013-10-09 20:00:00,62.7,44.3,30.18,SSE,158,0.0,1.7,51,0.00,,,0.00,VWS V14.01,2013-10-10 01:00:00,
2013-10-09 20:01:00,62.7,44.3,30.18,SSE,158,0.0,0.0,51,0.00,,,0.00,VWS V14.01,2013-10-10 01:01:00,
2013-10-09 20:02:00,62.7,44.3,30.18,SSE,158,0.0,0.0,51,0.00,,,0.00,VWS V14.01,2013-10-10 01:02:00,
2013-10-09 20:03:00,62.7,44.3,30.18,SSE,158,0.0,0.0,51,0.00,,,0.00,VWS V14.01,2013-10-10 01:03:00,
2013-10-09 20:04:00,57.7,44.4,30.19,ESE,112,1.5,1.5,61,0.00,,,0.00,VWS V14.01,2013-10-10 01:04:00,
2013-10-09 20:05:00,62.7,44.3,30.18,SSE,158,0.0,0.0,51,0.00,,,0.00,VWS V14.01,2013-10-10 01:05:00,
2013-10-09 20:06:00,62.7,44.3,30.18,SSE,158,0.0,0.0,51,0.00,,,0.00,VWS V14.01,2013-10-10 01:06:00,
2013-10-09 20:07:00,62.6,44.2,30.18,SE,135,0.0,0.0,51,0.00,,,0.00,VWS V14.01,2013-10-10 01:07:00,
2013-10-09 20:08:00,62.6,44.2,30.18,SE,135,0.0,0.0,51,0.00,,,0.00,VWS V14.01,2013-10-10 01:08:00,
2013-10-09 20:09:00,58.8,45.0,30.19,ESE,112,0.6,0.6,60,0.00,,,0.00,VWS V14.01,2013-10-10 01:09:00,
2013-10-09 20:10:00,62.4,44.0,30.18,SE,135,0.0,0.0,51,0.00,,,0.00,VWS V14.01,2013-10-10 01:10:00,
2013-10-09 20:11:00,62.2,43.9,30.18,SE,135,2.4,2.4,51,0.00,,,0.00,VWS V14.01,2013-10-10 01:11:00,
2013-10-09 20:12:00,62.2,43.9,30.19,SE,135,2.4,2.4,51,0.00,,,0.00,VWS V14.01,2013-10-10 01:12:00,
2013-10-09 20:13:00,62.0,43.7,30.18,SE,135,1.1,2.4,51,0.00,,,0.00,VWS V14.01,2013-10-10 01:13:00,
2013-10-09 20:14:00,58.8,45.0,30.20,ESE,112,0.0,0.0,60,0.00,,,0.00,VWS V14.01,2013-10-10 01:14:00,
2013-10-09 20:15:00,61.7,43.9,30.18,SE,135,1.5,1.5,52,0.00,,,0.00,VWS V14.01,2013-10-10 01:15:00,
2013-10-09 20:16:00,61.7,43.9,30.18,SE,135,1.5,1.5,52,0.00,,,0.00,VWS V14.01,2013-10-10 01:16:00,
2013-10-09 20:17:00,61.5,43.7,30.18,ESE,112,2.9,2.9,52,0.00,,,0.00,VWS V14.01,2013-10-10 01:17:00,
2013-10-09 20:18:00,61.5,43.7,30.18,ESE,112,2.9,2.9,52,0.00,,,0.00,VWS V14.01,2013-10-10 01:18:00,
2013-10-09 20:19:00,57.0,43.7,30.19,ESE,112,0.0,0.0,61,0.00,,,0.00,VWS V14.01,2013-10-10 01:19:00,
2013-10-09 20:20:00,61.3,44.0,30.18,ESE,112,1.7,1.7,53,0.00,,,0.00,VWS V14.01,2013-10-10 01:20:00,
2013-10-09 20:21:00,61.3,44.0,30.18,ESE,112,1.7,1.7,53,0.00,,,0.00,VWS V14.01,2013-10-10 01:21:00,
2013-10-09 20:22:00,61.3,44.0,30.18,ESE,112,1.1,1.7,53,0.00,,,0.00,VWS V14.01,2013-10-10 01:22:00,
2013-10-09 20:23:00,61.3,44.0,30.18,ESE,112,1.1,1.1,53,0.00,,,0.00,VWS V14.01,2013-10-10 01:23:00,
2013-10-09 20:24:00,57.2,44.3,30.19,ESE,112,3.5,3.5,62,0.00,,,0.00,VWS V14.01,2013-10-10 01:24:00,
2013-10-09 20:25:00,61.1,43.9,30.18,ESE,112,0.0,0.0,53,0.00,,,0.00,VWS V14.01,2013-10-10 01:25:00,
2013-10-09 20:26:00,60.6,43.9,30.18,ESE,112,0.0,0.0,54,0.00,,,0.00,VWS V14.01,2013-10-10 01:26:00,
2013-10-09 20:27:00,60.6,43.9,30.18,ESE,112,0.0,0.0,54,0.00,,,0.00,VWS V14.01,2013-10-10 01:27:00,
2013-10-09 20:28:00,60.0,43.8,30.18,ESE,112,0.0,0.0,55,0.00,,,0.00,VWS V14.01,2013-10-10 01:28:00,
2013-10-09 20:29:00,58.1,44.7,30.19,ESE,112,2.2,2.2,61,0.00,,,0.00,VWS V14.01,2013-10-10 01:29:00,
2013-10-09 20:30:00,59.5,43.8,30.18,ESE,112,2.4,2.4,56,0.00,,,0.00,VWS V14.01,2013-10-10 01:30:00,
2013-10-09 20:31:00,59.5,43.8,30.18,ESE,112,2.4,2.4,56,0.00,,,0.00,VWS V14.01,2013-10-10 01:31:00,
2013-10-09 20:32:00,60.0,44.3,30.18,ESE,112,2.2,2.4,56,0.00,,,0.00,VWS V14.01,2013-10-10 01:32:00,
2013-10-09 20:33:00,60.0,44.3,30.18,ESE,112,2.2,2.2,56,0.00,,,0.00,VWS V14.01,2013-10-10 01:33:00,
2013-10-09 20:34:00,58.6,45.2,30.20,ESE,112,0.0,0.0,61,0.00,,,0.00,VWS V14.01,2013-10-10 01:34:00,
2013-10-09 20:35:00,60.0,44.3,30.18,ESE,112,3.5,3.5,56,0.00,,,0.00,VWS V14.01,2013-10-10 01:35:00,
2013-10-09 20:36:00,60.0,44.3,30.18,ESE,112,3.5,3.5,56,0.00,,,0.00,VWS V14.01,2013-10-10 01:36:00,
2013-10-09 20:37:00,60.0,44.3,30.18,ESE,112,3.3,3.5,56,0.00,,,0.00,VWS V14.01,2013-10-10 01:37:00,
2013-10-09 20:38:00,60.0,44.3,30.18,ESE,112,3.3,3.3,56,0.00,,,0.00,VWS V14.01,2013-10-10 01:38:00,
2013-10-09 20:39:00,57.9,44.1,30.20,ESE,112,0.0,0.0,60,0.00,,,0.00,VWS V14.01,2013-10-10 01:39:00,
2013-10-09 20:40:00,60.0,44.7,30.18,ESE,112,4.2,4.2,57,0.00,,,0.00,VWS V14.01,2013-10-10 01:40:00,
2013-10-09 20:41:00,59.7,44.5,30.18,ESE,112,3.3,4.2,57,0.00,,,0.00,VWS V14.01,2013-10-10 01:41:00,
2013-10-09 20:42:00,59.7,44.5,30.18,ESE,112,3.3,3.3,57,0.00,,,0.00,VWS V14.01,2013-10-10 01:42:00,
2013-10-09 20:43:00,59.5,44.7,30.18,ESE,112,2.9,3.3,58,0.00,,,0.00,VWS V14.01,2013-10-10 01:43:00,
2013-10-09 20:44:00,56.8,43.9,30.20,ESE,112,0.0,0.0,62,0.00,,,0.00,VWS V14.01,2013-10-10 01:44:00,
2013-10-09 20:45:00,59.5,44.7,30.19,ESE,112,2.9,2.9,58,0.00,,,0.00,VWS V14.01,2013-10-10 01:45:00,
2013-10-09 20:46:00,59.5,44.7,30.19,ESE,112,2.9,2.9,58,0.00,,,0.00,VWS V14.01,2013-10-10 01:46:00,
2013-10-09 20:47:00,59.3,44.5,30.19,ESE,112,2.9,2.9,58,0.00,,,0.00,VWS V14.01,2013-10-10 01:47:00,
2013-10-09 20:48:00,59.3,44.5,30.19,ESE,112,1.7,2.9,58,0.00,,,0.00,VWS V14.01,2013-10-10 01:48:00,
2013-10-09 20:49:00,55.9,43.5,30.20,ESE,112,0.0,0.0,63,0.00,,,0.00,VWS V14.01,2013-10-10 01:49:00,
2013-10-09 20:50:00,58.8,44.1,30.19,ESE,112,0.0,1.7,58,0.00,,,0.00,VWS V14.01,2013-10-10 01:50:00,
2013-10-09 20:51:00,58.8,44.1,30.19,ESE,112,0.0,0.0,58,0.00,,,0.00,VWS V14.01,2013-10-10 01:51:00,
2013-10-09 20:52:00,58.8,44.1,30.19,ESE,112,0.0,0.0,58,0.00,,,0.00,VWS V14.01,2013-10-10 01:52:00,
2013-10-09 20:53:00,58.8,44.1,30.19,ESE,112,0.0,0.0,58,0.00,,,0.00,VWS V14.01,2013-10-10 01:53:00,
2013-10-09 20:54:00,55.2,43.2,30.20,ESE,112,0.0,0.0,64,0.00,,,0.00,VWS V14.01,2013-10-10 01:54:00,
2013-10-09 20:55:00,58.8,44.1,30.19,ESE,112,0.0,0.0,58,0.00,,,0.00,VWS V14.01,2013-10-10 01:55:00,
2013-10-09 20:56:00,58.2,44.0,30.19,ESE,112,0.0,0.0,59,0.00,,,0.00,VWS V14.01,2013-10-10 01:56:00,
2013-10-09 20:57:00,58.2,44.0,30.19,ESE,112,0.0,0.0,59,0.00,,,0.00,VWS V14.01,2013-10-10 01:57:00,
2013-10-09 20:58:00,57.7,43.9,30.19,ESE,112,0.0,0.0,60,0.00,,,0.00,VWS V14.01,2013-10-10 01:58:00,
2013-10-09 20:59:00,54.6,43.1,30.20,ESE,112,0.0,0.0,65,0.00,,,0.00,VWS V14.01,2013-10-10 01:59:00,
2013-10-09 21:00:00,57.3,44.0,30.19,ESE,112,0.0,0.0,61,0.00,,,0.00,VWS V14.01,2013-10-10 02:00:00,
2013-10-09 21:01:00,57.3,44.0,30.19,ESE,112,0.0,0.0,61,0.00,,,0.00,VWS V14.01,2013-10-10 02:01:00,
2013-10-09 21:02:00,57.3,44.0,30.19,ESE,112,1.5,1.5,61,0.00,,,0.00,VWS V14.01,2013-10-10 02:02:00,
2013-10-09 21:03:00,57.7,44.4,30.19,ESE,112,1.5,1.5,61,0.00,,,0.00,VWS V14.01,2013-10-10 02:03:00,
2013-10-09 21:04:00,55.4,44.2,30.20,ESE,112,0.0,0.0,66,0.00,,,0.00,VWS V14.01,2013-10-10 02:04:00,
2013-10-09 21:05:00,58.1,44.7,30.19,ESE,112,2.2,2.2,61,0.00,,,0.00,VWS V14.01,2013-10-10 02:05:00,
2013-10-09 21:06:00,58.1,44.7,30.19,ESE,112,2.2,2.2,61,0.00,,,0.00,VWS V14.01,2013-10-10 02:06:00,
2013-10-09 21:07:00,58.6,44.8,30.19,ESE,112,1.7,2.2,60,0.00,,,0.00,VWS V14.01,2013-10-10 02:07:00,
2013-10-09 21:08:00,58.6,44.8,30.19,ESE,112,1.7,1.7,60,0.00,,,0.00,VWS V14.01,2013-10-10 02:08:00,
2013-10-09 21:09:00,54.6,43.5,30.20,ESE,112,0.0,0.0,66,0.00,,,0.00,VWS V14.01,2013-10-10 02:09:00,
2013-10-09 21:10:00,58.8,45.0,30.19,ESE,112,0.6,0.6,60,0.00,,,0.00,VWS V14.01,2013-10-10 02:10:00,
2013-10-09 21:11:00,58.8,44.5,30.19,ESE,112,0.0,0.6,59,0.00,,,0.00,VWS V14.01,2013-10-10 02:11:00,
2013-10-09 21:12:00,58.8,44.5,30.20,ESE,112,0.0,0.0,59,0.00,,,0.00,VWS V14.01,2013-10-10 02:12:00,
2013-10-09 21:13:00,58.8,45.0,30.20,ESE,112,0.0,0.0,60,0.00,,,0.00,VWS V14.01,2013-10-10 02:13:00,
2013-10-09 21:14:00,54.3,43.6,30.20,ESE,112,2.9,2.9,67,0.00,,,0.00,VWS V14.01,2013-10-10 02:14:00,
2013-10-09 21:15:00,58.1,44.3,30.20,ESE,112,0.0,0.0,60,0.00,,,0.00,VWS V14.01,2013-10-10 02:15:00,
2013-10-09 21:16:00,58.1,44.3,30.19,ESE,112,0.0,0.0,60,0.00,,,0.00,VWS V14.01,2013-10-10 02:16:00,
2013-10-09 21:17:00,57.3,44.0,30.19,ESE,112,0.0,0.0,61,0.00,,,0.00,VWS V14.01,2013-10-10 02:17:00,
2013-10-09 21:18:00,57.3,44.0,30.20,ESE,112,0.0,0.0,61,0.00,,,0.00,VWS V14.01,2013-10-10 02:18:00,
2013-10-09 21:19:00,54.5,43.8,30.20,ESE,112,0.0,0.0,67,0.00,,,0.00,VWS V14.01,2013-10-10 02:19:00,
2013-10-09 21:20:00,57.0,43.7,30.19,ESE,112,0.0,0.0,61,0.00,,,0.00,VWS V14.01,2013-10-10 02:20:00,
2013-10-09 21:21:00,57.0,43.7,30.19,ESE,112,0.0,0.0,61,0.00,,,0.00,VWS V14.01,2013-10-10 02:21:00,
2013-10-09 21:22:00,56.6,43.3,30.19,ESE,112,0.0,0.0,61,0.00,,,0.00,VWS V14.01,2013-10-10 02:22:00,
2013-10-09 21:23:00,56.6,43.3,30.19,ESE,112,0.0,0.0,61,0.00,,,0.00,VWS V14.01,2013-10-10 02:23:00,
2013-10-09 21:24:00,54.1,43.8,30.20,ESE,112,0.0,0.0,68,0.00,,,0.00,VWS V14.01,2013-10-10 02:24:00,
2013-10-09 21:25:00,57.2,44.3,30.19,ESE,112,3.5,3.5,62,0.00,,,0.00,VWS V14.01,2013-10-10 02:25:00,
2013-10-09 21:26:00,57.9,44.5,30.19,ESE,112,3.5,3.5,61,0.00,,,0.00,VWS V14.01,2013-10-10 02:26:00,
2013-10-09 21:27:00,57.9,44.5,30.19,ESE,112,3.5,3.5,61,0.00,,,0.00,VWS V14.01,2013-10-10 02:27:00,
2013-10-09 21:28:00,58.1,44.7,30.19,ESE,112,2.2,3.5,61,0.00,,,0.00,VWS V14.01,2013-10-10 02:28:00,
2013-10-09 21:29:00,53.9,43.6,30.20,ESE,112,0.8,0.8,68,0.00,,,0.00,VWS V14.01,2013-10-10 02:29:00,
2013-10-09 21:30:00,58.1,44.7,30.19,ESE,112,3.1,3.1,61,0.00,,,0.00,VWS V14.01,2013-10-10 02:30:00,
2013-10-09 21:31:00,58.1,44.7,30.20,ESE,112,3.1,3.1,61,0.00,,,0.00,VWS V14.01,2013-10-10 02:31:00,
2013-10-09 21:32:00,58.1,44.7,30.20,ESE,112,1.5,3.1,61,0.00,,,0.00,VWS V14.01,2013-10-10 02:32:00,
2013-10-09 21:33:00,58.6,45.2,30.20,ESE,112,1.5,1.5,61,0.00,,,0.00,VWS V14.01,2013-10-10 02:33:00,
2013-10-09 21:34:00,55.0,44.3,30.20,ESE,112,0.0,0.0,67,0.00,,,0.00,VWS V14.01,2013-10-10 02:34:00,
2013-10-09 21:35:00,58.8,45.0,30.20,ESE,112,0.0,0.0,60,0.00,,,0.00,VWS V14.01,2013-10-10 02:35:00,
2013-10-09 21:36:00,58.8,45.0,30.20,ESE,112,0.0,0.0,60,0.00,,,0.00,VWS V14.01,2013-10-10 02:36:00,
2013-10-09 21:37:00,58.2,44.4,30.20,ESE,112,0.0,0.0,60,0.00,,,0.00,VWS V14.01,2013-10-10 02:37:00,
2013-10-09 21:38:00,58.2,44.4,30.19,ESE,112,0.0,0.0,60,0.00,,,0.00,VWS V14.01,2013-10-10 02:38:00,
2013-10-09 21:39:00,54.5,44.2,30.20,ESE,112,0.0,0.0,68,0.00,,,0.00,VWS V14.01,2013-10-10 02:39:00,
2013-10-09 21:40:00,57.9,44.1,30.20,ESE,112,0.0,0.0,60,0.00,,,0.00,VWS V14.01,2013-10-10 02:40:00,
2013-10-09 21:41:00,57.3,44.0,30.20,ESE,112,0.0,0.0,61,0.00,,,0.00,VWS V14.01,2013-10-10 02:41:00,
2013-10-09 21:42:00,57.3,44.0,30.20,ESE,112,0.0,0.0,61,0.00,,,0.00,VWS V14.01,2013-10-10 02:42:00,
2013-10-09 21:43:00,56.8,43.9,30.20,ESE,112,0.0,0.0,62,0.00,,,0.00,VWS V14.01,2013-10-10 02:43:00,
2013-10-09 21:44:00,54.3,44.0,30.20,ESE,112,0.0,0.0,68,0.00,,,0.00,VWS V14.01,2013-10-10 02:44:00,
2013-10-09 21:45:00,56.1,43.3,30.20,ESE,112,0.0,0.0,62,0.00,,,0.00,VWS V14.01,2013-10-10 02:45:00,
2013-10-09 21:46:00,56.1,43.3,30.20,ESE,112,0.0,0.0,62,0.00,,,0.00,VWS V14.01,2013-10-10 02:46:00,
2013-10-09 21:47:00,55.9,43.1,30.20,ESE,112,0.0,0.0,62,0.00,,,0.00,VWS V14.01,2013-10-10 02:47:00,
2013-10-09 21:48:00,55.9,43.5,30.20,ESE,112,0.0,0.0,63,0.00,,,0.00,VWS V14.01,2013-10-10 02:48:00,
2013-10-09 21:49:00,53.9,43.6,30.20,ESE,112,0.0,0.0,68,0.00,,,0.00,VWS V14.01,2013-10-10 02:49:00,
2013-10-09 21:50:00,55.7,43.3,30.20,ESE,112,0.0,0.0,63,0.00,,,0.00,VWS V14.01,2013-10-10 02:50:00,
2013-10-09 21:51:00,55.7,43.3,30.20,ESE,112,0.0,0.0,63,0.00,,,0.00,VWS V14.01,2013-10-10 02:51:00,
2013-10-09 21:52:00,55.4,43.0,30.20,ESE,112,0.0,0.0,63,0.00,,,0.00,VWS V14.01,2013-10-10 02:52:00,
2013-10-09 21:53:00,55.4,43.0,30.20,ESE,112,0.0,0.0,63,0.00,,,0.00,VWS V14.01,2013-10-10 02:53:00,
2013-10-09 21:54:00,54.3,44.0,30.20,ESE,112,0.0,0.0,68,0.00,,,0.00,VWS V14.01,2013-10-10 02:54:00,
2013-10-09 21:55:00,55.2,43.2,30.20,ESE,112,0.0,0.0,64,0.00,,,0.00,VWS V14.01,2013-10-10 02:55:00,
2013-10-09 21:56:00,54.8,42.9,30.20,ESE,112,0.0,0.0,64,0.00,,,0.00,VWS V14.01,2013-10-10 02:56:00,
2013-10-09 21:57:00,54.8,42.9,30.20,ESE,112,0.0,0.0,64,0.00,,,0.00,VWS V14.01,2013-10-10 02:57:00,
2013-10-09 21:58:00,54.6,43.1,30.20,ESE,112,0.0,0.0,65,0.00,,,0.00,VWS V14.01,2013-10-10 02:58:00,
2013-10-09 21:59:00,54.8,44.5,30.20,ESE,112,0.0,0.0,68,0.00,,,0.00,VWS V14.01,2013-10-10 02:59:00,
2013-10-09 22:00:00,54.8,43.7,30.20,ESE,112,0.8,0.8,66,0.00,,,0.00,VWS V14.01,2013-10-10 03:00:00,
2013-10-09 22:01:00,54.8,43.7,30.20,ESE,112,0.8,0.8,66,0.00,,,0.00,VWS V14.01,2013-10-10 03:01:00,
2013-10-09 22:02:00,55.4,44.2,30.20,ESE,112,0.0,0.8,66,0.00,,,0.00,VWS V14.01,2013-10-10 03:02:00,
2013-10-09 22:03:00,55.4,44.2,30.20,ESE,112,0.0,0.0,66,0.00,,,0.00,VWS V14.01,2013-10-10 03:03:00,
2013-10-09 22:04:00,54.3,44.0,30.21,ESE,112,0.0,0.0,68,0.00,,,0.00,VWS V14.01,2013-10-10 03:04:00,
2013-10-09 22:05:00,55.5,44.3,30.20,ESE,112,0.0,0.0,66,0.00,,,0.00,VWS V14.01,2013-10-10 03:05:00,
2013-10-09 22:06:00,55.5,44.3,30.20,ESE,112,0.0,0.0,66,0.00,,,0.00,VWS V14.01,2013-10-10 03:06:00,
2013-10-09 22:07:00,55.2,44.1,30.20,ESE,112,0.0,0.0,66,0.00,,,0.00,VWS V14.01,2013-10-10 03:07:00,
2013-10-09 22:08:00,55.2,44.1,30.20,ESE,112,0.0,0.0,66,0.00,,,0.00,VWS V14.01,2013-10-10 03:08:00,
2013-10-09 22:09:00,53.7,43.4,30.21,ESE,112,0.0,0.0,68,0.00,,,0.00,VWS V14.01,2013-10-10 03:09:00,
2013-10-09 22:10:00,54.6,43.5,30.20,ESE,112,0.0,0.0,66,0.00,,,0.00,VWS V14.01,2013-10-10 03:10:00,
2013-10-09 22:11:00,54.3,43.6,30.20,ESE,112,0.0,0.0,67,0.00,,,0.00,VWS V14.01,2013-10-10 03:11:00,
2013-10-09 22:12:00,54.3,43.6,30.20,ESE,112,0.0,0.0,67,0.00,,,0.00,VWS V14.01,2013-10-10 03:12:00,
2013-10-09 22:13:00,54.3,43.6,30.20,ESE,112,2.9,2.9,67,0.00,,,0.00,VWS V14.01,2013-10-10 03:13:00,
2013-10-09 22:14:00,54.1,43.8,30.21,ESE,112,0.0,0.0,68,0.00,,,0.00,VWS V14.01,2013-10-10 03:14:00,
2013-10-09 22:15:00,54.8,44.1,30.20,ESE,112,0.0,2.9,67,0.00,,,0.00,VWS V14.01,2013-10-10 03:15:00,
2013-10-09 22:16:00,54.8,44.1,30.20,ESE,112,0.0,0.0,67,0.00,,,0.00,VWS V14.01,2013-10-10 03:16:00,
2013-10-09 22:17:00,54.8,44.1,30.20,ESE,112,0.0,0.0,67,0.00,,,0.00,VWS V14.01,2013-10-10 03:17:00,
2013-10-09 22:18:00,54.8,44.1,30.20,ESE,112,0.0,0.0,67,0.00,,,0.00,VWS V14.01,2013-10-10 03:18:00,
2013-10-09 22:19:00,54.3,44.0,30.21,ESE,112,0.0,0.0,68,0.00,,,0.00,VWS V14.01,2013-10-10 03:19:00,
2013-10-09 22:20:00,54.5,43.8,30.20,ESE,112,0.0,0.0,67,0.00,,,0.00,VWS V14.01,2013-10-10 03:20:00,
2013-10-09 22:21:00,54.5,43.8,30.20,ESE,112,0.0,0.0,67,0.00,,,0.00,VWS V14.01,2013-10-10 03:21:00,
2013-10-09 22:22:00,54.3,43.6,30.20,ESE,112,0.0,0.0,67,0.00,,,0.00,VWS V14.01,2013-10-10 03:22:00,
2013-10-09 22:23:00,54.3,43.6,30.20,ESE,112,0.0,0.0,67,0.00,,,0.00,VWS V14.01,2013-10-10 03:23:00,
2013-10-09 22:24:00,54.5,44.2,30.21,ESE,112,0.0,0.0,68,0.00,,,0.00,VWS V14.01,2013-10-10 03:24:00,
2013-10-09 22:25:00,54.1,43.8,30.20,ESE,112,0.0,0.0,68,0.00,,,0.00,VWS V14.01,2013-10-10 03:25:00,
2013-10-09 22:26:00,53.7,43.4,30.20,ESE,112,0.0,0.0,68,0.00,,,0.00,VWS V14.01,2013-10-10 03:26:00,
2013-10-09 22:27:00,53.7,43.4,30.20,ESE,112,0.0,0.0,68,0.00,,,0.00,VWS V14.01,2013-10-10 03:27:00,
2013-10-09 22:28:00,53.9,43.6,30.20,ESE,112,0.8,0.8,68,0.00,,,0.00,VWS V14.01,2013-10-10 03:28:00,
2013-10-09 22:29:00,54.3,44.0,30.21,ESE,112,0.0,0.0,68,0.00,,,0.00,VWS V14.01,2013-10-10 03:29:00,
2013-10-09 22:30:00,54.3,44.0,30.20,ESE,112,2.0,2.0,68,0.00,,,0.00,VWS V14.01,2013-10-10 03:30:00,
2013-10-09 22:31:00,54.3,44.0,30.20,ESE,112,2.0,2.0,68,0.00,,,0.00,VWS V14.01,2013-10-10 03:31:00,
2013-10-09 22:32:00,55.0,44.7,30.20,ESE,112,2.0,2.0,68,0.00,,,0.00,VWS V14.01,2013-10-10 03:32:00,
2013-10-09 22:33:00,55.0,44.7,30.20,ESE,112,0.0,2.0,68,0.00,,,0.00,VWS V14.01,2013-10-10 03:33:00,
2013-10-09 22:34:00,53.6,43.7,30.21,ESE,112,0.0,0.0,69,0.00,,,0.00,VWS V14.01,2013-10-10 03:34:00,
2013-10-09 22:35:00,55.0,44.3,30.20,ESE,112,0.0,0.0,67,0.00,,,0.00,VWS V14.01,2013-10-10 03:35:00,
2013-10-09 22:36:00,55.0,44.3,30.20,ESE,112,0.0,0.0,67,0.00,,,0.00,VWS V14.01,2013-10-10 03:36:00,
2013-10-09 22:37:00,54.6,44.3,30.20,ESE,112,0.0,0.0,68,0.00,,,0.00,VWS V14.01,2013-10-10 03:37:00,
2013-10-09 22:38:00,54.6,44.3,30.20,ESE,112,0.0,0.0,68,0.00,,,0.00,VWS V14.01,2013-10-10 03:38:00,
2013-10-09 22:39:00,53.4,43.9,30.21,ESE,112,0.0,0.0,70,0.00,,,0.00,VWS V14.01,2013-10-10 03:39:00,
2013-10-09 22:40:00,54.5,44.2,30.20,ESE,112,0.0,0.0,68,0.00,,,0.00,VWS V14.01,2013-10-10 03:40:00,
2013-10-09 22:41:00,54.3,44.0,30.20,ESE,112,0.0,0.0,68,0.00,,,0.00,VWS V14.01,2013-10-10 03:41:00,
2013-10-09 22:42:00,54.3,44.0,30.20,ESE,112,0.0,0.0,68,0.00,,,0.00,VWS V14.01,2013-10-10 03:42:00,
2013-10-09 22:43:00,54.3,44.0,30.20,ESE,112,0.0,0.0,68,0.00,,,0.00,VWS V14.01,2013-10-10 03:43:00,
2013-10-09 22:44:00,53.4,43.9,30.21,ESE,112,0.0,0.0,70,0.00,,,0.00,VWS V14.01,2013-10-10 03:44:00,
2013-10-09 22:45:00,54.1,43.8,30.20,ESE,112,0.0,0.0,68,0.00,,,0.00,VWS V14.01,2013-10-10 03:45:00,
2013-10-09 22:46:00,54.1,43.8,30.20,ESE,112,0.0,0.0,68,0.00,,,0.00,VWS V14.01,2013-10-10 03:46:00,
2013-10-09 22:47:00,54.1,43.8,30.20,ESE,112,0.0,0.0,68,0.00,,,0.00,VWS V14.01,2013-10-10 03:47:00,
2013-10-09 22:48:00,54.1,43.8,30.20,ESE,112,0.0,0.0,68,0.00,,,0.00,VWS V14.01,2013-10-10 03:48:00,
2013-10-09 22:49:00,53.4,44.2,30.21,ESE,112,0.0,0.0,71,0.00,,,0.00,VWS V14.01,2013-10-10 03:49:00,
2013-10-09 22:50:00,53.9,43.6,30.20,ESE,112,0.0,0.0,68,0.00,,,0.00,VWS V14.01,2013-10-10 03:50:00,
2013-10-09 22:51:00,53.9,43.6,30.20,ESE,112,0.0,0.0,68,0.00,,,0.00,VWS V14.01,2013-10-10 03:51:00,
2013-10-09 22:52:00,54.1,43.8,30.20,ESE,112,0.0,0.0,68,0.00,,,0.00,VWS V14.01,2013-10-10 03:52:00,
2013-10-09 22:53:00,54.1,43.8,30.20,ESE,112,0.0,0.0,68,0.00,,,0.00,VWS V14.01,2013-10-10 03:53:00,
2013-10-09 22:54:00,52.3,43.2,30.21,ESE,112,0.0,0.0,71,0.00,,,0.00,VWS V14.01,2013-10-10 03:54:00,
2013-10-09 22:55:00,54.3,44.0,30.20,ESE,112,0.0,0.0,68,0.00,,,0.00,VWS V14.01,2013-10-10 03:55:00,
2013-10-09 22:56:00,54.5,44.2,30.20,ESE,112,0.0,0.0,68,0.00,,,0.00,VWS V14.01,2013-10-10 03:56:00,
2013-10-09 22:57:00,54.5,44.2,30.20,ESE,112,0.0,0.0,68,0.00,,,0.00,VWS V14.01,2013-10-10 03:57:00,
2013-10-09 22:58:00,54.8,44.5,30.20,ESE,112,0.0,0.0,68,0.00,,,0.00,VWS V14.01,2013-10-10 03:58:00,
2013-10-09 22:59:00,51.6,42.9,30.20,ESE,112,0.0,0.0,72,0.00,,,0.00,VWS V14.01,2013-10-10 03:59:00,
2013-10-09 23:00:00,54.8,44.5,30.20,ESE,112,0.0,0.0,68,0.00,,,0.00,VWS V14.01,2013-10-10 04:00:00,
2013-10-09 23:01:00,51.4,42.7,30.20,ESE,112,0.0,0.0,72,0.00,,,0.00,VWS V14.01,2013-10-10 04:01:00,
2013-10-09 23:02:00,54.5,44.2,30.20,ESE,112,0.0,0.0,68,0.00,,,0.00,VWS V14.01,2013-10-10 04:02:00,
2013-10-09 23:03:00,54.5,44.2,30.20,ESE,112,0.0,0.0,68,0.00,,,0.00,VWS V14.01,2013-10-10 04:03:00,
2013-10-09 23:04:00,54.3,44.0,30.21,ESE,112,0.0,0.0,68,0.00,,,0.00,VWS V14.01,2013-10-10 04:04:00,
2013-10-09 23:05:00,54.3,44.0,30.20,ESE,112,0.0,0.0,68,0.00,,,0.00,VWS V14.01,2013-10-10 04:05:00,
2013-10-09 23:06:00,50.7,42.4,30.20,ESE,112,0.0,0.0,73,0.00,,,0.00,VWS V14.01,2013-10-10 04:06:00,
2013-10-09 23:07:00,53.9,43.6,30.21,ESE,112,0.0,0.0,68,0.00,,,0.00,VWS V14.01,2013-10-10 04:07:00,
2013-10-09 23:08:00,53.9,43.6,30.21,ESE,112,0.0,0.0,68,0.00,,,0.00,VWS V14.01,2013-10-10 04:08:00,
2013-10-09 23:09:00,53.7,43.4,30.21,ESE,112,0.0,0.0,68,0.00,,,0.00,VWS V14.01,2013-10-10 04:09:00,
2013-10-09 23:10:00,53.7,43.4,30.21,ESE,112,0.0,0.0,68,0.00,,,0.00,VWS V14.01,2013-10-10 04:10:00,
2013-10-09 23:11:00,50.1,42.2,30.20,ESE,112,0.0,0.0,74,0.00,,,0.00,VWS V14.01,2013-10-10 04:11:00,
2013-10-09 23:12:00,53.9,43.6,30.21,ESE,112,0.0,0.0,68,0.00,,,0.00,VWS V14.01,2013-10-10 04:12:00,
2013-10-09 23:13:00,54.1,43.8,30.21,ESE,112,0.0,0.0,68,0.00,,,0.00,VWS V14.01,2013-10-10 04:13:00,
2013-10-09 23:14:00,54.1,43.8,30.21,ESE,112,0.0,0.0,68,0.00,,,0.00,VWS V14.01,2013-10-10 04:14:00,
2013-10-09 23:15:00,54.1,43.8,30.21,ESE,112,0.0,0.0,68,0.00,,,0.00,VWS V14.01,2013-10-10 04:15:00,
2013-10-09 23:16:00,50.7,43.4,30.20,ESE,112,0.0,0.0,76,0.00,,,0.00,VWS V14.01,2013-10-10 04:16:00,
2013-10-09 23:17:00,53.9,43.6,30.21,ESE,112,0.0,0.0,68,0.00,,,0.00,VWS V14.01,2013-10-10 04:17:00,
2013-10-09 23:18:00,53.9,43.6,30.21,ESE,112,0.0,0.0,68,0.00,,,0.00,VWS V14.01,2013-10-10 04:18:00,
2013-10-09 23:19:00,54.3,44.0,30.21,ESE,112,0.0,0.0,68,0.00,,,0.00,VWS V14.01,2013-10-10 04:19:00,
2013-10-09 23:20:00,54.3,44.0,30.21,ESE,112,0.0,0.0,68,0.00,,,0.00,VWS V14.01,2013-10-10 04:20:00,
2013-10-09 23:21:00,51.2,44.2,30.21,ESE,112,0.0,0.0,77,0.00,,,0.00,VWS V14.01,2013-10-10 04:21:00,
2013-10-09 23:22:00,54.5,44.2,30.21,ESE,112,0.0,0.0,68,0.00,,,0.00,VWS V14.01,2013-10-10 04:22:00,
2013-10-09 23:23:00,54.5,44.2,30.21,ESE,112,0.0,0.0,68,0.00,,,0.00,VWS V14.01,2013-10-10 04:23:00,
2013-10-09 23:24:00,54.5,44.2,30.21,ESE,112,0.0,0.0,68,0.00,,,0.00,VWS V14.01,2013-10-10 04:24:00,
2013-10-09 23:25:00,54.5,44.2,30.21,ESE,112,0.0,0.0,68,0.00,,,0.00,VWS V14.01,2013-10-10 04:25:00,
2013-10-09 23:26:00,51.6,44.3,30.20,ESE,112,0.0,0.0,76,0.00,,,0.00,VWS V14.01,2013-10-10 04:26:00,
2013-10-09 23:27:00,54.3,44.0,30.21,ESE,112,0.0,0.0,68,0.00,,,0.00,VWS V14.01,2013-10-10 04:27:00,
2013-10-09 23:28:00,54.3,44.0,30.21,ESE,112,0.0,0.0,68,0.00,,,0.00,VWS V14.01,2013-10-10 04:28:00,
2013-10-09 23:29:00,54.3,44.0,30.21,ESE,112,0.0,0.0,68,0.00,,,0.00,VWS V14.01,2013-10-10 04:29:00,
2013-10-09 23:30:00,54.1,43.8,30.21,ESE,112,0.0,0.0,68,0.00,,,0.00,VWS V14.01,2013-10-10 04:30:00,
2013-10-09 23:31:00,51.0,43.7,30.21,ESE,112,0.0,0.0,76,0.00,,,0.00,VWS V14.01,2013-10-10 04:31:00,
2013-10-09 23:32:00,53.7,43.8,30.21,ESE,112,0.0,0.0,69,0.00,,,0.00,VWS V14.01,2013-10-10 04:32:00,
2013-10-09 23:33:00,53.7,43.8,30.21,ESE,112,0.0,0.0,69,0.00,,,0.00,VWS V14.01,2013-10-10 04:33:00,
2013-10-09 23:34:00,53.6,43.7,30.21,ESE,112,0.0,0.0,69,0.00,,,0.00,VWS V14.01,2013-10-10 04:34:00,
2013-10-09 23:35:00,53.6,43.7,30.21,ESE,112,0.0,0.0,69,0.00,,,0.00,VWS V14.01,2013-10-10 04:35:00,
2013-10-09 23:36:00,50.7,43.4,30.21,ESE,112,0.0,0.0,76,0.00,,,0.00,VWS V14.01,2013-10-10 04:36:00,
2013-10-09 23:37:00,53.4,43.5,30.21,ESE,112,0.0,0.0,69,0.00,,,0.00,VWS V14.01,2013-10-10 04:37:00,
2013-10-09 23:38:00,53.4,43.5,30.21,ESE,112,0.0,0.0,69,0.00,,,0.00,VWS V14.01,2013-10-10 04:38:00,
2013-10-09 23:39:00,53.4,43.9,30.21,ESE,112,0.0,0.0,70,0.00,,,0.00,VWS V14.01,2013-10-10 04:39:00,
2013-10-09 23:40:00,53.4,43.9,30.21,ESE,112,0.0,0.0,70,0.00,,,0.00,VWS V14.01,2013-10-10 04:40:00,
2013-10-09 23:41:00,51.0,43.7,30.21,ESE,112,0.0,0.0,76,0.00,,,0.00,VWS V14.01,2013-10-10 04:41:00,
2013-10-09 23:42:00,53.4,43.9,30.21,ESE,112,0.0,0.0,70,0.00,,,0.00,VWS V14.01,2013-10-10 04:42:00,
2013-10-09 23:43:00,53.4,43.9,30.21,ESE,112,0.0,0.0,70,0.00,,,0.00,VWS V14.01,2013-10-10 04:43:00,
2013-10-09 23:44:00,53.4,43.9,30.21,ESE,112,0.0,0.0,70,0.00,,,0.00,VWS V14.01,2013-10-10 04:44:00,
2013-10-09 23:45:00,53.4,43.9,30.21,ESE,112,0.0,0.0,70,0.00,,,0.00,VWS V14.01,2013-10-10 04:45:00,
2013-10-09 23:46:00,50.7,43.4,30.21,ESE,112,0.0,0.0,76,0.00,,,0.00,VWS V14.01,2013-10-10 04:46:00,
2013-10-09 23:47:00,53.4,43.9,30.21,ESE,112,0.0,0.0,70,0.00,,,0.00,VWS V14.01,2013-10-10 04:47:00,
2013-10-09 23:48:00,53.4,43.9,30.21,ESE,112,0.0,0.0,70,0.00,,,0.00,VWS V14.01,2013-10-10 04:48:00,
2013-10-09 23:49:00,53.4,44.2,30.21,ESE,112,0.0,0.0,71,0.00,,,0.00,VWS V14.01,2013-10-10 04:49:00,
2013-10-09 23:50:00,53.2,44.0,30.21,ESE,112,0.0,0.0,71,0.00,,,0.00,VWS V14.01,2013-10-10 04:50:00,
2013-10-09 23:51:00,50.7,43.4,30.21,ESE,112,0.0,0.0,76,0.00,,,0.00,VWS V14.01,2013-10-10 04:51:00,
2013-10-09 23:52:00,52.8,43.7,30.21,ESE,112,0.0,0.0,71,0.00,,,0.00,VWS V14.01,2013-10-10 04:52:00,
2013-10-09 23:53:00,52.8,43.7,30.21,ESE,112,0.0,0.0,71,0.00,,,0.00,VWS V14.01,2013-10-10 04:53:00,
2013-10-09 23:54:00,52.3,43.2,30.21,ESE,112,0.0,0.0,71,0.00,,,0.00,VWS V14.01,2013-10-10 04:54:00,
2013-10-09 23:55:00,52.3,43.2,30.21,ESE,112,0.0,0.0,71,0.00,,,0.00,VWS V14.01,2013-10-10 04:55:00,
2013-10-09 23:56:00,50.7,43.4,30.20,ESE,112,0.0,0.0,76,0.00,,,0.00,VWS V14.01,2013-10-10 04:56:00,
2013-10-09 23:57:00,51.9,43.2,30.20,ESE,112,0.0,0.0,72,0.00,,,0.00,VWS V14.01,2013-10-10 04:57:00,
2013-10-09 23:58:00,51.6,42.9,30.20,ESE,112,0.0,0.0,72,0.00,,,0.00,VWS V14.01,2013-10-10 04:58:00,
2013-10-09 23:59:00,51.6,42.9,30.20,ESE,112,0.0,0.0,72,0.00,,,0.00,VWS V14.01,2013-10-10 04:59:00,